GFSCGP_850_temp_000.txt.gz
Temp
20 20 20 22 22 23 24 23 23 25 24 21 21 21 21 21 18 18 18 19 19 18 16 15 14 13 12 13 13 13 13 12 12 12 12 12 12 10 9 9 8 8 8 7
21 19 22 25 24 23 23 22 22 24 22 22 21 21 22 22 20 18 18 18 19 18 17 15 13 12 12 12 12 11 11 11 11 12 12 11 10 9 8 7 6 6 6 6
21 23 24 23 23 23 22 22 22 23 22 22 20 19 20 22 24 21 18 18 19 19 18 16 14 12 12 11 11 11 10 10 10 11 10 9 9 8 7 7 6 6 6 6
23 24 22 22 22 23 21 23 23 22 21 19 20 18 21 22 21 22 22 19 19 19 19 17 15 12 12 11 11 10 10 10 9 9 8 8 8 6 6 6 6 6 6 5
22 20 20 21 22 23 22 21 21 21 20 19 20 18 20 24 23 22 22 23 19 19 19 17 15 13 12 11 10 10 10 8 8 8 7 7 6 6 5 5 6 6 5 5
21 21 21 21 23 22 20 20 20 19 18 16 19 20 20 22 24 23 23 23 22 19 18 17 15 14 12 11 10 9 9 8 8 8 7 6 6 5 5 5 5 5 5 5
21 21 21 22 19 19 19 19 17 16 15 16 22 21 22 25 25 25 23 23 21 19 17 16 15 13 12 11 10 9 9 8 7 7 6 6 6 5 5 5 5 5 4 4
20 20 20 21 20 18 17 18 17 18 18 20 20 18 21 24 23 23 22 22 20 19 17 15 14 13 12 11 10 9 8 7 7 7 6 6 6 6 5 5 5 4 4 4
21 21 23 21 21 21 19 17 19 19 20 18 20 22 23 24 19 20 21 20 19 17 16 15 14 13 12 11 10 9 8 8 7 7 7 6 6 6 5 5 5 4 4 4
22 20 23 20 20 20 20 20 17 16 17 17 20 20 20 24 20 18 17 18 19 17 16 15 14 13 12 11 10 9 9 8 7 7 7 6 6 6 5 5 5 4 4 4
21 20 20 16 17 18 17 17 18 19 18 17 18 19 24 23 23 19 17 19 18 17 16 15 14 13 12 11 10 10 9 8 8 7 7 6 6 5 5 5 4 4 4 4
22 20 18 17 19 19 19 19 19 18 18 19 19 20 23 23 22 22 21 20 18 17 16 15 14 13 12 11 11 10 9 8 8 7 7 6 6 5 5 4 4 4 4 4
20 19 17 18 17 18 17 19 19 19 18 18 18 20 21 21 20 21 21 21 19 17 16 15 14 13 12 11 10 10 9 8 7 7 7 6 5 5 5 4 4 4 4 3
18 18 18 17 19 18 16 18 19 19 17 18 18 19 20 19 19 18 20 21 19 17 16 15 14 13 12 12 11 10 9 8 7 7 6 6 5 5 4 4 4 4 3 3
16 16 18 19 20 21 20 19 18 18 18 18 19 19 21 21 19 19 20 19 19 17 16 15 14 13 12 12 11 10 9 8 8 7 6 5 5 5 4 4 4 4 3 3
9 11 14 17 19 19 19 20 20 18 18 18 19 19 21 22 23 22 21 20 18 18 16 16 14 13 12 11 11 10 9 8 7 6 6 5 5 5 4 4 4 4 3 3
5 7 9 11 16 18 17 19 20 20 19 18 17 19 19 19 19 21 22 21 20 19 17 16 15 13 12 11 10 9 9 8 7 6 6 6 5 5 4 4 4 3 3 2
7 7 6 8 11 13 18 20 20 20 20 19 19 19 19 19 21 22 21 20 19 18 17 16 15 13 12 10 10 9 8 7 7 6 6 5 5 4 4 4 3 3 2 2
8 8 8 9 10 13 18 19 19 18 17 19 19 19 19 20 20 19 20 19 18 17 17 15 14 13 11 10 9 8 8 7 6 5 5 5 4 4 4 3 3 2 2 2
10 10 8 8 10 11 14 18 20 18 15 17 17 18 18 19 16 17 19 18 17 16 15 14 13 11 10 9 8 7 6 6 5 5 4 4 4 4 3 3 2 2 2 2
9 7 6 7 7 8 12 17 19 15 16 18 18 18 18 16 17 19 19 18 16 14 14 12 11 10 9 8 7 6 6 5 5 5 5 4 4 3 3 2 2 2 2 1
8 7 7 7 7 8 8 10 11 8 10 12 14 17 17 18 17 17 17 16 14 13 12 11 10 9 8 7 6 6 5 5 5 4 4 4 3 3 3 2 2 2 1 1
6 7 6 6 7 7 7 7 8 8 9 11 12 13 16 15 14 14 14 14 12 13 11 10 10 8 7 7 6 6 5 5 5 4 4 3 3 3 3 2 2 2 1 1
8 9 6 5 9 8 8 9 9 9 7 9 10 12 13 13 14 13 13 12 11 11 11 9 8 7 7 6 6 5 5 5 4 4 3 3 3 3 2 2 2 1 1 1
7 7 7 8 9 9 9 8 8 9 9 10 9 11 12 12 12 12 12 11 10 10 9 8 7 7 6 6 5 5 5 4 4 3 3 3 2 2 2 2 1 1 1 0
6 6 6 7 9 9 9 9 9 9 10 11 10 10 11 12 12 12 11 10 9 9 8 7 7 6 6 6 5 5 4 4 3 3 2 2 2 2 1 1 1 1 1 0

GFSCGP_850_temp_006.txt.gz
Temp
17 14 13 14 14 16 16 16 17 18 19 16 16 17 17 17 15 15 16 16 18 19 20 18 17 16 16 15 15 15 15 14 14 14 14 14 14 14 13 13 13 12 11 10
15 13 16 15 15 15 16 16 15 16 18 17 16 16 17 15 15 16 17 16 18 18 18 18 17 16 15 15 14 14 14 14 14 14 14 13 13 13 12 12 12 11 10 9
13 15 17 16 16 16 16 16 16 17 19 17 17 16 16 16 17 18 18 18 18 19 20 19 18 17 16 15 15 14 14 14 14 13 13 13 13 12 12 12 11 10 9 9
14 17 17 16 16 17 16 17 18 18 17 15 16 17 15 16 16 15 17 18 17 18 18 19 19 17 16 16 15 14 14 13 13 13 12 12 12 12 11 11 10 9 8 7
15 18 15 16 18 17 17 17 17 18 16 16 16 14 17 16 16 17 17 20 21 19 17 18 19 19 18 16 16 15 14 13 13 12 12 12 11 11 11 10 9 9 7 7
15 18 18 17 18 18 18 18 14 12 12 13 16 15 19 17 18 20 21 22 22 21 19 18 19 18 18 17 15 14 14 13 12 11 11 11 11 10 10 10 9 8 7 6
14 16 17 19 18 17 17 14 13 13 12 14 15 14 19 17 17 17 19 23 23 22 19 18 17 18 17 17 15 14 13 13 12 11 11 11 10 9 9 9 8 7 7 6
14 16 15 16 18 17 14 15 13 13 13 17 14 14 18 16 21 22 21 24 23 22 21 21 20 19 18 17 15 14 14 12 11 11 11 10 9 9 9 8 8 7 6 5
13 14 16 17 19 18 16 14 16 15 14 12 13 14 17 16 16 16 18 21 23 23 22 23 21 19 19 18 16 15 14 13 12 11 10 9 9 8 8 8 7 6 6 5
14 14 17 18 17 17 16 15 14 12 14 13 15 14 16 17 20 19 15 16 23 23 21 21 21 20 19 18 17 15 14 14 13 12 10 10 9 8 8 7 7 6 5 5
14 13 15 16 15 15 14 15 14 13 12 15 16 17 14 19 18 17 16 19 22 22 22 22 21 20 19 18 16 15 14 13 12 11 10 9 8 8 7 7 7 6 5 5
11 11 12 15 17 17 17 17 17 15 15 10 16 18 19 16 16 16 19 21 21 20 21 21 20 19 18 17 16 15 14 13 13 11 10 9 8 7 7 7 7 6 5 5
10 10 10 12 14 13 12 14 14 15 16 16 15 17 18 18 18 20 17 20 22 21 20 20 19 18 18 17 16 15 14 13 12 11 10 9 8 7 7 7 7 6 5 5
9 8 10 10 9 6 7 6 9 8 13 15 16 17 18 17 15 16 19 22 22 21 21 19 18 18 18 17 16 15 14 13 12 11 10 9 8 7 7 7 6 5 5 5
8 7 8 7 8 9 8 8 6 6 7 7 9 13 18 19 18 19 19 20 19 18 18 19 19 18 17 16 16 15 14 13 12 11 10 9 8 7 7 7 6 5 5 4
6 6 8 7 8 8 8 8 8 7 8 9 12 12 16 18 18 18 19 18 20 20 19 20 20 19 18 17 17 15 13 12 11 10 10 9 8 7 7 6 6 5 4 4
6 6 4 6 8 8 7 9 8 10 11 10 8 9 10 8 10 15 17 17 18 21 22 20 20 20 19 18 17 16 14 12 11 10 9 8 8 7 7 6 5 5 4 4
5 5 5 5 6 5 9 11 11 11 11 9 8 7 6 5 6 7 14 19 19 19 21 21 20 20 19 18 17 15 14 13 11 10 9 8 7 7 6 6 5 5 4 4
5 5 5 5 4 7 8 11 10 8 8 8 6 5 5 4 4 8 12 11 11 16 20 21 21 21 20 18 16 15 13 12 11 10 9 8 7 7 6 5 5 4 4 3
7 6 5 3 2 3 8 9 10 9 7 6 6 6 5 4 4 5 7 7 7 11 13 20 20 20 19 17 16 14 13 12 11 10 9 8 7 7 6 5 4 4 3 3
3 3 4 4 4 5 8 8 10 6 7 6 7 7 5 4 4 5 5 6 8 12 14 19 19 20 19 16 15 13 13 11 10 9 8 7 7 6 5 4 4 4 3 2
3 3 3 4 3 3 7 8 6 6 7 7 7 8 6 5 5 5 5 6 8 10 15 17 18 17 16 15 14 13 11 10 9 8 7 7 6 6 4 4 4 3 2 2
2 4 4 3 4 6 8 7 8 8 7 6 7 8 6 6 5 5 5 5 8 8 15 16 16 15 14 13 13 11 10 9 8 7 7 6 5 4 4 4 3 3 2 2
3 4 4 2 5 6 7 7 7 7 7 7 8 8 7 8 6 6 6 5 6 9 11 14 14 13 12 11 11 10 9 8 7 7 6 5 4 4 4 3 3 2 2 2
4 4 4 4 5 6 6 6 6 6 7 6 7 7 7 8 8 7 5 5 5 9 10 12 12 12 10 9 9 8 8 7 6 6 5 4 4 4 3 3 2 2 1 1
4 4 3 4 5 5 5 6 5 5 5 6 6 7 8 8 8 7 6 5 6 8 10 11 11 10 9 9 8 7 7 6 6 5 5 4 4 3 3 2 2 1 1 1

GFSCGP_850_temp_009.txt.gz
Temp
16 13 12 13 13 15 16 14 15 16 17 15 14 16 17 18 15 14 15 17 17 18 21 19 19 18 18 17 17 16 16 15 15 15 14 14 14 14 14 13 13 13 12 11
14 12 14 14 14 14 15 15 14 14 16 15 15 16 16 17 14 17 16 16 17 19 19 18 19 18 17 17 17 16 16 15 15 15 14 14 14 13 13 13 13 12 11 10
12 14 15 15 14 14 14 14 14 15 17 15 16 16 14 15 16 17 18 20 18 19 20 21 19 19 18 17 16 16 16 15 15 14 14 13 12 12 12 13 12 12 11 10
12 15 15 14 14 14 15 15 15 16 16 15 15 17 17 15 15 14 16 18 19 18 19 19 20 20 19 17 17 16 16 15 15 14 14 13 13 13 13 12 11 11 11 9
14 16 15 14 16 15 15 17 15 15 14 15 15 14 18 15 15 16 16 19 21 22 20 18 19 21 20 19 18 17 15 15 14 14 13 13 12 12 12 11 11 11 10 9
14 17 16 15 17 16 17 17 15 12 11 13 15 14 18 19 17 17 18 21 23 24 23 21 20 18 18 18 17 16 15 15 14 14 13 12 12 12 11 11 11 10 9 8
13 14 15 17 15 16 16 14 12 12 11 15 14 14 18 18 17 16 17 21 24 24 22 21 19 18 17 18 17 16 15 15 14 13 13 12 11 11 11 10 10 10 9 8
12 15 15 16 16 15 13 15 14 13 13 17 12 13 18 16 18 21 21 22 23 22 22 22 21 20 20 19 17 16 15 15 14 13 13 12 11 11 10 10 10 9 8 7
12 12 15 16 17 16 15 13 16 14 17 12 16 14 15 15 14 16 17 21 22 24 23 22 22 20 19 19 18 17 17 15 14 14 13 12 11 10 10 10 9 9 8 7
11 12 15 15 17 16 15 14 14 10 13 14 15 13 15 16 17 17 15 17 22 24 24 22 21 21 20 19 19 18 17 16 15 14 13 12 11 10 10 9 9 8 7 7
9 10 12 13 14 14 15 13 13 13 12 14 14 16 17 17 18 18 16 19 21 23 23 23 20 19 19 18 18 18 17 16 15 14 13 11 10 10 9 9 8 8 7 6
10 9 10 11 14 15 15 14 11 12 12 11 14 16 18 16 15 15 16 20 23 24 23 22 20 19 18 18 17 18 17 16 15 14 13 11 10 9 9 8 8 7 6 6
8 8 7 10 11 8 7 8 9 6 6 8 10 13 14 11 10 12 14 18 21 23 21 21 21 20 18 18 18 18 17 16 15 14 12 11 10 9 8 8 7 6 6 6
9 7 7 7 9 8 8 9 9 7 6 6 6 7 9 10 9 10 10 12 17 21 20 18 19 20 20 18 18 18 17 16 15 13 12 11 10 9 9 8 7 6 6 6
7 6 7 7 8 8 8 8 8 7 7 6 8 9 10 11 10 7 7 8 8 10 16 20 21 20 18 17 17 17 17 16 14 13 12 11 11 9 8 8 7 6 6 5
5 5 6 5 6 6 6 8 8 7 8 8 8 6 8 8 8 7 6 6 8 9 10 13 16 19 18 18 18 17 16 16 14 13 12 11 10 9 8 7 7 6 6 5
4 4 3 4 5 6 5 6 7 8 9 9 8 9 6 6 6 6 5 6 8 8 8 8 10 13 19 18 19 18 17 16 14 13 12 11 10 9 8 7 7 6 6 5
4 4 4 4 4 4 6 8 8 7 9 9 8 6 6 6 5 5 6 7 7 6 7 8 8 10 12 16 18 17 16 15 14 13 12 11 10 9 8 7 6 6 5 5
4 3 3 3 4 6 7 8 7 7 7 5 2 6 7 7 5 7 7 6 5 7 6 6 8 10 11 12 16 15 15 15 14 13 12 11 10 9 8 7 6 6 5 4
4 3 2 3 3 3 6 7 6 6 5 6 8 6 7 6 4 6 7 6 5 6 7 6 10 12 12 12 14 14 14 14 13 13 12 11 10 9 8 7 6 5 5 4
2 1 2 2 1 4 6 6 6 5 4 7 7 6 6 5 6 7 6 7 6 5 7 6 10 13 13 12 13 12 14 15 14 13 12 10 9 8 7 7 5 5 4 3
1 -0 1 0 -0 2 6 7 6 6 7 7 6 6 5 6 6 6 6 6 6 5 7 7 7 10 11 11 13 13 14 14 13 12 11 9 8 7 7 6 5 4 4 3
2 3 3 1 3 5 7 6 5 5 6 6 5 5 6 6 5 6 6 6 7 5 7 6 6 6 9 10 12 13 13 13 12 11 9 9 8 7 6 5 4 4 3 2
2 4 2 2 4 5 5 5 5 5 5 6 5 5 5 5 5 5 6 6 6 6 7 6 5 5 9 10 11 13 12 11 10 9 8 7 6 6 5 4 4 3 3 2
4 4 4 3 3 4 5 5 5 5 5 4 4 4 4 5 6 6 6 6 6 5 5 6 5 6 7 10 11 11 11 10 9 8 7 6 5 5 4 4 3 3 2 2
3 3 2 2 5 4 4 5 4 4 4 5 4 5 5 5 5 7 6 7 6 5 5 6 6 7 8 9 9 9 9 8 7 6 6 5 5 4 4 3 3 2 2 1

GFSCGP_850_temp_012.txt.gz
Temp
15 12 12 12 12 15 15 14 13 14 15 15 13 14 15 17 15 16 19 20 20 20 23 21 21 20 19 18 18 17 17 16 16 15 15 15 15 15 14 14 14 13 13 13
12 11 13 13 13 13 13 13 13 13 14 14 13 15 16 16 15 17 18 19 21 21 22 21 20 20 19 19 18 17 17 16 16 16 16 15 15 15 14 13 13 13 12 12
11 14 14 13 14 13 13 12 13 14 13 13 14 16 16 14 16 16 17 20 21 20 21 21 21 20 19 19 19 18 17 17 16 16 15 15 14 13 13 13 13 13 12 11
11 13 14 13 13 13 13 13 14 14 13 14 15 16 19 16 16 14 15 17 19 21 21 20 19 19 20 20 19 18 17 17 16 15 15 15 15 15 14 14 13 12 11 11
14 15 15 13 13 13 13 14 14 13 12 13 13 13 19 16 16 15 15 20 20 22 23 22 22 22 22 20 19 18 17 17 16 15 15 15 14 14 13 12 12 11 11 10
13 15 16 14 15 14 15 15 14 10 10 11 15 13 18 18 16 17 18 21 22 23 22 22 23 21 20 19 18 18 17 17 16 15 15 15 14 14 13 12 12 11 11 10
12 13 14 15 14 15 15 13 11 11 10 13 14 13 18 16 17 17 16 22 23 24 24 23 22 22 21 19 17 17 17 16 16 15 15 15 14 13 13 12 12 11 11 10
11 12 15 15 15 15 13 12 10 12 11 12 12 12 17 16 15 18 20 21 22 23 24 23 21 21 21 18 16 16 16 15 16 15 15 14 14 13 12 11 11 10 10 10
10 11 13 14 15 16 14 12 14 13 15 13 15 14 17 16 15 14 17 20 21 21 22 22 21 21 20 20 19 17 16 15 16 15 15 14 13 12 12 11 10 10 9 9
9 9 12 13 14 14 14 13 12 10 11 12 13 13 14 16 16 14 10 11 12 14 15 15 19 21 20 20 19 16 15 16 16 15 15 14 14 13 11 10 10 10 9 8
8 8 11 11 11 10 11 12 11 11 13 12 10 12 15 7 8 10 10 12 12 12 12 13 15 17 18 18 18 18 17 15 15 15 14 14 13 12 11 10 10 9 9 8
8 7 7 9 10 10 10 10 10 7 8 6 6 9 9 9 11 11 11 11 11 10 9 12 13 14 17 16 18 17 15 15 16 15 15 14 13 12 11 10 9 8 8 8
7 5 4 7 8 8 7 9 9 7 5 6 6 8 11 10 11 11 12 8 8 9 10 9 13 14 14 14 14 14 15 16 15 15 14 14 13 12 11 10 9 8 8 7
8 5 5 5 6 6 6 7 7 6 5 6 7 7 9 9 9 10 8 7 7 8 9 9 9 12 13 13 13 14 14 15 15 14 14 14 13 12 11 10 9 8 8 7
4 4 5 5 6 6 6 6 6 5 5 5 6 7 8 9 9 9 7 7 8 10 9 8 7 8 12 12 11 12 13 14 15 14 14 14 13 12 11 10 9 8 7 7
4 4 4 4 5 5 5 5 6 6 6 6 6 7 8 6 6 7 8 7 6 6 6 6 7 7 9 11 10 10 11 13 14 14 14 13 13 12 11 10 8 7 7 6
3 2 1 3 4 4 3 6 6 7 6 7 6 4 3 3 4 5 7 6 6 6 6 6 5 5 7 9 10 10 10 11 12 12 13 13 12 12 11 9 8 7 7 6
2 3 3 2 2 2 6 7 7 7 8 7 4 5 6 4 4 5 6 6 7 7 6 6 6 6 6 7 9 10 10 9 10 12 12 13 12 11 10 9 8 7 6 6
3 1 1 1 0 4 5 6 6 5 5 6 4 6 7 7 6 6 7 7 7 6 6 6 6 6 6 7 9 11 9 9 9 12 13 12 12 11 10 9 8 7 6 6
2 2 2 2 2 1 5 7 7 5 4 5 5 5 6 6 3 5 6 5 5 5 6 6 6 6 6 7 8 10 9 9 10 11 13 13 12 11 10 9 8 7 6 6
2 0 1 1 0 1 4 5 5 3 3 4 4 4 5 4 4 5 5 5 5 5 5 6 6 6 6 8 7 9 9 10 11 11 12 12 11 11 10 9 8 7 6 5
0 -1 -0 -1 0 1 5 6 4 5 5 4 4 4 4 4 4 4 4 5 4 5 6 5 6 5 5 7 7 8 10 10 10 10 11 12 11 10 9 8 7 6 5 4
0 2 1 2 2 5 6 5 5 4 4 4 4 4 4 4 3 4 4 4 5 5 5 5 5 4 5 5 5 7 8 8 9 9 11 11 10 9 8 7 6 5 5 4
2 3 2 2 4 3 4 4 4 4 4 4 4 3 3 3 3 3 4 5 5 5 5 5 5 3 5 4 4 5 7 7 8 9 10 10 9 8 7 6 6 5 4 3
2 3 3 2 3 3 4 4 3 3 3 3 4 4 3 3 3 4 4 5 5 5 6 4 5 3 4 3 3 5 6 7 8 9 9 8 8 7 6 5 5 4 3 3
3 3 2 2 4 3 3 3 3 3 3 3 3 3 3 3 3 3 3 4 4 5 5 4 5 3 5 2 3 4 5 7 9 8 8 7 7 6 6 5 4 3 2 2

GFSCGP_850_temp_015.txt.gz
Temp
14 15 15 14 14 14 14 14 15 16 16 16 17 17 17 18 16 16 17 20 22 22 24 23 23 21 20 20 19 18 17 17 16 15 15 14 15 15 15 15 15 15 14 14
13 14 14 13 13 13 14 14 15 15 15 14 15 16 17 17 18 19 17 18 20 22 23 23 23 22 21 21 20 19 18 17 16 16 16 15 16 15 15 15 14 14 14 13
14 15 12 14 13 13 13 14 14 15 15 15 14 17 18 17 17 17 17 19 20 19 21 22 22 22 21 20 21 20 19 18 17 16 16 15 15 14 14 14 14 14 13 13
12 13 14 13 13 14 13 14 15 15 14 16 16 18 19 20 20 16 16 18 21 23 23 23 22 21 21 21 21 20 20 18 17 16 16 15 16 15 15 15 14 14 13 12
15 15 14 14 15 13 15 14 14 14 14 13 16 16 21 19 19 20 21 20 21 23 23 23 22 22 22 21 20 20 19 18 17 17 16 16 15 15 15 15 14 13 12 12
14 14 15 15 15 14 15 15 13 11 13 14 17 16 19 20 19 19 19 21 22 20 16 16 17 18 19 20 19 18 18 18 18 17 17 16 15 15 15 14 13 12 12 11
11 13 14 15 15 14 14 13 13 14 13 15 15 16 19 19 20 19 18 16 15 16 14 14 15 16 16 17 18 19 17 17 16 16 16 16 15 15 15 14 13 13 12 11
10 13 14 14 14 14 14 14 14 14 15 16 15 15 18 18 16 12 11 11 11 12 12 13 13 15 15 15 15 15 16 15 14 14 15 16 15 15 14 14 13 12 12 12
10 10 13 14 13 13 13 13 13 13 14 13 15 17 18 19 14 11 12 12 12 11 11 11 13 14 14 16 15 14 14 14 14 15 14 15 15 15 14 14 13 12 11 11
9 9 11 12 13 13 12 12 11 12 11 12 14 15 15 16 10 11 12 12 11 10 9 9 10 12 12 14 15 12 12 12 13 14 14 15 15 14 14 13 12 11 11 10
8 8 10 10 11 10 10 10 11 10 11 10 10 12 10 11 11 11 12 11 10 9 8 8 8 10 11 13 14 12 11 11 11 11 12 13 14 14 14 13 12 11 11 10
8 7 6 8 9 10 10 9 8 6 6 6 5 5 10 11 11 11 10 11 10 9 8 7 8 8 9 11 11 12 11 11 11 12 11 11 13 14 14 12 12 11 10 10
6 5 5 8 8 8 8 8 7 7 5 5 5 6 10 10 9 10 9 9 9 8 7 7 6 6 7 9 10 10 10 10 10 10 11 10 11 13 13 12 11 11 10 9
7 5 5 5 6 6 5 5 6 6 4 5 5 6 7 8 8 6 6 6 7 7 7 7 6 6 6 7 9 9 9 9 9 9 10 11 11 12 12 12 11 10 9 9
4 4 5 5 5 5 5 5 5 5 5 4 5 6 7 6 4 5 5 6 7 7 7 6 6 6 6 5 8 8 9 8 8 9 9 10 11 11 12 12 11 10 9 8
4 3 4 3 5 5 5 5 5 6 6 7 7 6 6 4 5 6 6 6 6 6 6 6 6 6 6 5 5 7 7 8 7 8 9 9 9 10 11 11 10 9 9 8
3 3 3 2 4 4 3 5 6 7 7 7 5 6 5 4 6 6 6 5 6 5 6 6 6 6 6 5 5 6 7 8 8 8 8 9 9 10 11 11 10 9 9 8
2 2 3 3 2 3 6 7 7 6 7 7 6 4 5 5 5 5 6 6 6 6 5 5 5 5 6 5 5 5 6 8 8 8 8 8 9 9 10 11 10 9 8 8
2 2 2 1 2 4 5 6 6 5 5 6 4 5 5 5 4 5 6 5 5 5 5 5 5 5 5 5 5 4 6 8 8 8 7 7 8 9 9 11 10 9 8 7
1 2 2 3 2 2 6 7 6 5 4 4 4 4 4 4 3 5 5 4 4 4 4 4 5 5 4 5 4 4 5 7 7 7 6 7 8 9 9 10 10 9 8 7
2 2 1 2 2 3 4 5 6 3 4 4 3 3 4 3 4 4 3 3 4 4 4 5 5 5 5 4 4 4 5 6 6 5 6 6 7 8 9 10 10 9 8 7
2 1 1 1 1 1 5 6 3 4 4 4 3 3 3 3 3 3 3 3 3 4 5 6 5 5 4 3 3 4 4 5 5 5 5 6 7 7 8 10 9 8 7 6
1 3 2 2 2 4 5 5 4 4 3 3 3 2 2 2 2 2 2 2 3 3 3 4 4 4 5 3 2 3 4 4 5 5 4 5 6 7 8 9 9 7 7 6
1 3 1 1 4 4 4 4 3 3 3 3 3 2 3 2 2 2 2 2 2 2 2 3 3 4 4 2 2 2 3 4 4 5 5 6 5 6 8 9 8 7 6 5
3 3 2 2 3 3 3 2 1 2 3 3 2 2 2 2 1 1 1 1 1 2 2 2 3 4 3 2 1 2 2 2 3 3 4 3 7 6 7 8 7 6 6 6
2 3 2 2 2 1 1 1 2 2 2 2 1 1 1 1 1 1 1 0 1 1 1 2 2 3 3 2 -1 1 1 1 2 2 2 3 6 6 7 7 5 5 5 3

GFSCGP_850_temp_021.txt.gz
Temp
21 21 24 25 24 24 23 22 23 24 25 24 24 23 24 25 25 25 25 25 25 25 25 25 25 25 25 23 22 22 21 21 19 16 16 16 15 14 14 14 14 15 16 16
22 22 22 21 21 21 21 22 23 24 25 24 23 23 24 26 26 26 25 25 25 24 23 21 20 20 20 22 21 21 21 20 20 17 16 16 15 14 15 14 14 15 15 16
21 23 20 20 21 21 22 22 22 22 22 23 24 24 26 28 27 25 22 21 20 19 19 18 18 17 17 17 17 19 19 20 19 18 16 15 15 14 13 14 15 15 15 15
21 21 20 20 21 21 21 21 20 20 20 21 24 21 24 26 26 22 20 19 18 17 17 16 16 15 15 15 14 15 16 18 18 18 16 15 14 14 14 16 15 16 15 14
22 21 19 19 20 20 19 20 19 19 20 20 21 22 26 26 24 22 19 17 16 16 15 15 14 14 14 13 13 14 14 14 16 17 17 15 13 14 13 13 13 14 14 14
20 20 19 19 19 19 19 20 21 21 21 19 23 23 24 25 23 19 18 17 16 15 14 14 14 14 14 13 12 13 13 13 13 15 16 16 14 13 13 12 12 13 13 14
21 20 19 18 19 20 19 19 19 21 19 21 24 21 23 24 19 18 17 16 15 14 13 13 13 13 13 13 12 13 12 12 12 13 14 15 14 13 13 12 12 11 12 13
18 20 18 18 17 16 17 18 18 18 21 21 20 19 23 24 19 18 16 16 15 13 12 12 12 12 12 12 12 12 12 12 12 12 13 13 14 12 11 12 13 11 11 15
16 18 18 18 16 17 18 17 16 15 17 17 19 21 23 23 18 16 15 14 14 13 11 11 11 11 11 11 11 11 11 12 12 12 12 13 13 13 11 11 13 12 10 11
15 13 17 16 16 17 17 16 14 16 14 16 20 19 18 16 14 14 14 13 13 12 11 11 11 10 10 11 10 10 10 11 11 11 11 11 12 12 12 11 11 12 10 10
13 13 15 16 16 15 15 14 14 14 14 14 13 15 18 14 13 13 13 13 12 11 10 10 10 10 10 10 10 10 10 10 10 10 10 10 11 11 11 11 10 11 11 10
12 11 12 13 15 14 13 13 12 10 10 11 10 10 14 14 13 13 13 12 12 11 10 10 10 10 10 10 10 9 9 9 9 9 9 9 10 10 10 11 11 11 11 10
10 12 10 14 13 13 12 12 12 11 10 8 8 9 13 13 13 13 12 12 11 10 10 9 9 10 9 9 9 9 9 9 8 8 8 8 9 9 9 10 11 10 11 10
8 9 10 10 12 12 10 11 11 10 8 9 9 10 11 12 12 12 12 11 10 9 9 9 9 9 9 8 9 9 9 8 7 7 7 8 8 8 9 9 10 10 10 10
9 8 10 11 10 10 9 9 9 9 9 8 9 10 11 12 12 11 10 10 9 9 9 9 9 8 8 8 8 8 8 8 7 6 6 7 7 7 8 9 9 10 10 9
9 7 8 7 8 8 8 9 10 10 10 10 11 11 12 11 11 10 9 9 9 9 9 9 8 7 7 8 8 7 7 8 7 6 6 5 6 6 7 8 8 9 10 9
7 7 7 6 8 8 7 10 11 11 11 10 9 10 11 10 10 9 8 8 8 8 8 8 7 7 7 7 7 7 7 7 7 6 6 5 5 5 6 7 7 8 9 9
7 8 7 6 7 6 11 12 11 11 10 11 10 10 10 9 8 8 8 8 8 7 7 7 7 7 6 6 6 6 7 7 7 7 6 5 5 5 5 6 7 7 8 9
8 7 6 5 7 8 10 11 10 9 8 10 9 8 7 7 7 7 7 7 7 6 6 6 6 6 6 6 6 6 6 6 6 6 5 5 5 4 4 5 6 7 8 8
9 9 7 6 5 4 9 10 9 8 6 8 6 6 6 6 5 7 6 6 6 6 6 6 5 5 5 6 6 5 5 6 6 6 4 4 4 4 4 4 5 6 7 8
9 8 7 7 6 7 10 10 8 4 6 7 6 6 5 5 4 4 5 5 6 5 5 5 5 5 5 5 5 5 5 5 5 3 4 3 3 3 4 4 4 6 7 7
6 6 6 7 6 5 10 9 7 8 7 5 5 5 4 3 3 4 5 5 5 5 5 5 4 4 4 4 4 4 5 4 3 2 2 3 3 3 3 3 4 6 6 7
7 8 7 7 7 8 8 7 7 7 6 5 4 3 3 3 4 4 4 4 4 4 4 4 4 3 3 4 4 3 4 3 1 1 2 3 3 4 4 4 3 5 6 6
8 8 7 7 8 8 7 7 7 5 4 3 3 3 3 3 3 2 3 3 3 3 3 3 3 3 3 2 3 3 3 2 1 1 2 3 4 5 4 3 3 4 6 6
6 6 7 7 7 7 7 6 4 3 3 3 3 3 3 2 2 1 2 3 3 3 3 2 2 2 2 2 2 2 2 1 1 0 1 3 3 4 3 3 3 4 6 6
6 7 7 7 7 6 5 4 2 2 2 1 1 2 2 2 2 2 2 2 2 2 2 1 1 1 1 1 1 1 1 1 1 -1 -0 1 1 2 3 2 1 3 5 5

GFSCGP_850_temp_024.txt.gz
Temp
21 20 20 21 21 21 21 21 21 22 24 23 21 21 22 24 24 24 25 21 19 18 17 16 16 18 19 20 20 20 20 22 21 20 19 18 17 16 15 15 14 14 15 16
21 19 21 21 21 21 21 20 21 22 23 21 20 20 22 23 22 20 19 17 17 16 16 15 15 15 14 15 16 18 19 19 19 19 20 18 17 17 16 15 14 14 14 16
21 22 21 21 21 21 21 21 20 19 20 21 21 21 23 20 19 18 17 16 15 15 15 15 14 14 14 14 14 14 15 17 17 18 17 18 17 16 16 14 14 14 13 14
21 21 21 20 20 21 19 20 19 19 18 18 20 17 19 20 18 17 17 16 15 14 14 14 13 13 13 13 13 13 13 13 15 16 16 15 18 16 16 15 15 14 13 13
20 21 20 19 20 19 18 19 18 18 18 17 19 18 21 20 18 17 17 16 15 14 13 12 12 12 12 12 12 12 13 12 13 15 16 16 14 16 16 15 14 13 13 12
19 21 20 19 19 19 19 18 18 18 18 16 19 19 20 20 17 16 16 16 15 14 12 12 11 11 11 11 12 12 12 12 12 12 13 15 14 14 15 14 14 13 12 12
19 20 19 18 18 19 18 16 15 18 16 17 20 18 20 16 16 15 14 14 13 13 13 12 11 11 11 11 11 11 11 11 11 11 12 12 13 13 14 15 14 13 12 11
17 18 18 19 17 16 16 16 15 15 17 16 18 17 18 17 15 14 13 13 13 13 12 11 11 10 10 10 10 10 10 10 10 10 11 11 11 12 13 13 13 14 13 11
15 18 18 18 16 16 16 15 15 14 15 14 16 19 17 15 14 13 13 13 13 12 12 11 10 10 10 10 10 10 10 10 10 10 10 10 10 11 12 12 13 13 13 12
14 12 16 16 16 17 16 16 13 13 13 13 16 15 15 12 12 12 12 13 12 12 11 11 10 10 10 10 10 10 10 10 9 9 9 9 9 9 10 11 12 12 12 12
13 12 15 15 16 14 14 13 14 13 13 11 11 12 14 12 11 11 12 13 12 12 11 10 10 10 9 9 10 9 9 9 9 9 9 8 8 8 9 10 11 12 11 11
11 10 10 13 15 14 13 12 13 10 10 9 7 8 13 12 12 12 12 12 12 11 10 10 10 9 9 9 8 8 8 8 9 9 8 8 7 7 8 9 10 11 11 11
9 10 8 13 12 13 13 13 12 11 9 8 7 8 12 12 12 12 12 12 11 10 10 9 9 9 9 8 8 8 8 8 8 8 8 7 7 6 6 8 9 9 10 11
8 8 9 8 10 10 10 10 11 10 7 7 8 8 10 11 11 12 11 11 10 9 9 9 9 9 8 8 8 8 8 8 7 7 8 7 6 6 6 6 8 8 10 10
9 8 9 10 10 9 9 9 9 8 8 7 8 9 10 11 11 11 11 10 9 8 8 9 8 8 8 7 7 7 7 7 7 7 7 7 6 6 5 5 6 7 8 10
9 6 8 7 8 9 9 9 9 9 9 9 10 9 11 11 11 10 9 8 8 8 7 7 7 7 7 7 7 7 6 6 6 7 7 7 6 6 5 4 4 6 7 9
7 7 6 5 8 8 6 9 10 10 10 10 8 8 10 8 7 7 7 7 7 6 6 7 6 6 6 6 6 6 6 6 6 6 6 6 6 6 5 4 3 4 5 8
7 7 6 5 6 4 10 10 10 9 9 9 9 8 6 6 6 6 6 7 7 6 6 6 6 6 6 6 6 5 5 6 6 6 6 6 6 5 5 4 3 3 4 6
8 6 5 4 5 7 8 10 8 8 7 8 7 7 7 7 6 6 6 6 5 5 5 6 5 5 5 5 5 5 5 5 5 5 5 5 5 5 4 4 3 2 3 5
9 8 6 6 3 3 9 9 10 8 5 8 7 7 6 5 3 4 5 4 4 4 5 5 5 5 5 5 4 4 4 4 4 4 5 4 4 4 3 3 3 3 3 4
7 6 5 5 5 6 9 9 8 5 5 7 7 6 5 4 4 4 4 3 3 4 4 4 4 4 4 4 4 4 3 4 4 3 4 3 3 2 2 2 3 3 3 3
6 5 5 5 4 4 10 8 6 7 7 7 5 4 4 3 3 3 3 3 3 3 3 3 4 4 3 3 3 3 3 3 2 3 3 2 2 1 2 2 3 3 3 3
5 7 5 5 5 8 8 8 8 7 6 5 4 3 3 3 3 2 2 2 3 2 2 2 3 3 3 3 3 3 2 2 2 2 2 1 2 1 2 3 3 3 2 2
8 9 5 5 7 7 7 7 7 6 5 3 3 3 2 1 2 2 2 2 2 2 2 2 2 2 2 2 2 2 1 1 1 1 1 1 1 1 1 3 4 4 2 2
6 6 5 5 6 7 7 7 5 3 3 2 2 2 2 1 1 1 1 1 1 1 1 1 1 1 1 1 1 0 -0 -0 0 0 0 0 0 0 1 2 4 4 2 2
5 5 5 5 7 6 5 4 3 2 2 1 1 1 1 1 0 0 0 0 -0 -0 -0 -0 -0 -0 -0 -0 -1 -1 -1 -1 -0 -0 -0 0 -1 -0 0 1 2 2 2 2

GFSCGP_850_temp_030.txt.gz
Temp
18 15 15 16 17 17 18 17 16 16 18 17 17 13 12 13 12 12 12 12 11 12 12 13 13 13 14 14 14 15 15 15 15 15 15 15 15 15 15 15 16 16 16 17
15 15 17 17 19 18 18 17 15 15 17 17 15 12 12 13 12 12 12 11 12 12 12 12 12 12 12 13 13 13 13 14 14 15 15 14 14 14 14 14 14 15 15 16
16 18 19 19 17 16 16 17 16 15 15 15 16 12 13 13 12 12 11 11 11 11 11 11 11 11 11 11 11 12 12 11 11 12 14 15 15 15 15 14 14 14 14 14
16 19 18 17 17 16 15 17 16 15 14 13 15 11 12 11 10 10 11 11 11 11 11 11 11 11 10 10 11 11 11 11 10 10 10 11 11 11 12 12 12 13 13 13
16 18 17 17 17 17 15 16 15 15 13 14 13 12 12 11 10 10 11 12 12 11 11 10 11 10 10 10 10 10 10 10 10 10 10 10 10 10 10 10 11 12 12 12
15 17 17 17 17 16 15 15 13 11 10 11 13 12 11 10 10 10 11 12 12 12 11 11 10 10 10 10 10 10 9 9 9 9 9 9 9 9 9 10 9 9 10 10
12 16 16 17 15 14 12 10 10 14 11 12 13 12 10 9 10 11 11 11 12 12 11 10 10 10 10 10 10 9 10 9 9 9 9 9 9 9 8 9 8 8 8 9
10 14 13 15 15 14 13 12 10 13 11 11 11 12 9 9 11 11 11 11 11 11 10 10 9 9 9 9 9 9 9 9 9 9 8 8 8 8 8 8 8 8 8 8
9 12 13 14 15 14 13 11 12 11 9 9 9 10 10 9 9 10 10 10 10 10 10 9 9 9 9 9 9 8 8 8 8 8 8 8 7 7 7 7 7 7 8 7
10 9 11 12 14 13 13 13 11 8 10 9 8 9 9 8 8 8 9 9 10 10 9 9 9 9 9 9 9 8 8 7 7 7 7 8 8 7 7 7 7 7 7 7
8 8 10 11 11 11 10 10 9 8 7 8 6 8 7 7 8 8 9 9 9 9 8 8 9 9 9 8 8 8 7 8 8 7 6 6 6 7 6 6 7 7 6 6
7 6 6 9 9 11 11 11 7 5 7 5 1 4 8 7 9 9 9 9 9 8 8 8 7 7 8 7 7 7 7 7 6 6 6 6 6 6 6 6 6 6 6 6
7 5 4 10 9 9 9 9 8 6 2 2 3 7 8 10 9 9 8 8 8 7 7 7 7 7 7 7 6 6 6 6 6 5 5 5 5 5 5 6 6 6 5 5
8 5 6 6 8 7 6 7 7 6 -1 5 6 8 9 8 8 7 7 6 6 6 6 6 6 6 6 6 6 6 6 6 6 5 5 5 4 4 5 5 5 5 5 5
6 5 5 5 6 6 6 6 6 5 5 4 7 6 7 8 5 6 6 6 6 5 5 6 5 6 5 5 5 5 5 5 5 5 4 4 4 4 4 4 4 5 5 4
5 4 5 3 5 5 5 5 6 6 6 6 6 6 7 8 6 6 6 6 6 6 5 5 5 5 4 4 4 4 4 4 5 4 4 4 4 4 4 4 4 4 4 4
4 3 2 1 3 3 3 5 5 6 7 6 5 6 6 5 5 6 6 6 5 5 5 4 4 4 3 3 3 3 3 4 4 3 4 4 3 3 3 3 3 3 3 3
3 3 1 -0 2 3 8 6 6 6 7 6 6 5 5 5 6 6 5 5 5 4 4 3 3 2 2 2 2 3 3 2 3 3 3 3 3 3 3 3 2 2 2 2
5 2 -0 -1 -1 3 5 6 7 6 6 6 5 5 6 5 4 4 5 3 2 2 2 2 2 2 1 1 2 2 2 2 2 2 2 3 3 2 2 2 2 2 2 2
3 3 2 1 -1 -0 5 6 7 6 4 5 5 5 4 2 1 3 3 2 1 1 1 1 1 0 1 1 1 1 1 1 1 1 2 2 2 2 2 1 1 1 1 1
2 1 2 1 -2 1 4 6 7 4 3 5 4 3 2 1 2 1 1 1 0 0 -0 -0 -0 -0 -0 -0 -0 0 0 0 1 1 0 1 1 1 1 1 1 1 1 1
2 0 -0 0 -1 1 6 6 5 5 5 3 3 2 1 1 1 1 0 -1 -1 -1 -1 -2 -2 -2 -2 -1 -1 -1 -1 -1 -0 0 0 0 0 0 -0 -0 0 0 0 0
3 4 1 1 2 6 7 6 6 5 3 3 3 2 1 0 -0 -1 -2 -2 -2 -2 -3 -3 -3 -3 -2 -2 -2 -2 -2 -2 -2 -1 -0 -1 -0 -1 -1 -1 -1 -1 0 -0
4 5 2 3 4 5 6 7 6 5 4 3 2 1 0 -1 -2 -3 -3 -3 -3 -3 -3 -3 -3 -3 -3 -3 -3 -3 -3 -3 -2 -2 -2 -1 -1 -1 -2 -1 -1 -1 -1 -1
4 4 2 2 4 5 6 6 5 4 3 2 1 -0 -1 -2 -3 -3 -3 -3 -3 -3 -3 -3 -3 -3 -3 -3 -3 -3 -3 -3 -2 -2 -2 -2 -2 -2 -2 -2 -1 -1 -0 -1
4 3 1 4 6 5 5 4 3 3 1 0 -0 -0 -2 -3 -3 -3 -3 -3 -4 -3 -3 -3 -3 -3 -3 -3 -3 -3 -3 -3 -3 -2 -3 -2 -2 -2 -2 -2 -1 -1 -1 -0

GFSCGP_850_temp_033.txt.gz
Temp
17 14 15 16 16 17 17 16 15 14 16 15 11 10 11 11 11 11 11 11 11 11 11 12 12 12 13 13 13 14 14 14 14 15 15 15 14 14 14 14 14 14 14 15
14 15 17 16 17 17 17 16 14 14 16 15 11 11 11 11 10 10 11 11 11 11 11 11 12 12 12 12 12 12 12 12 12 12 12 12 13 13 13 13 13 13 13 14
15 18 18 18 16 16 15 15 15 15 14 13 11 11 10 11 11 10 10 10 11 11 11 11 11 11 11 11 11 11 11 11 11 11 11 11 12 12 12 13 13 13 12 12
16 17 17 17 17 15 15 16 15 14 13 13 14 11 9 10 10 10 10 11 10 10 11 11 11 11 11 11 11 11 11 11 11 10 9 9 9 9 10 10 10 11 11 12
16 16 16 16 16 16 15 15 14 14 13 13 12 11 10 8 10 10 10 11 11 10 10 10 10 10 10 10 10 11 10 10 10 10 10 9 9 9 9 9 9 9 10 10
14 16 16 16 16 15 13 14 11 9 9 10 11 12 9 8 9 10 10 11 11 11 10 10 10 10 10 10 10 10 10 10 10 9 9 9 9 8 8 8 8 7 8 9
11 15 15 15 15 14 12 10 10 13 11 12 12 11 10 9 8 9 10 10 10 10 11 10 10 10 10 10 9 9 9 9 8 8 8 8 8 8 7 7 7 7 7 7
11 14 12 13 14 13 12 11 10 14 11 10 9 11 9 8 10 10 10 10 10 10 10 10 9 9 9 9 9 8 8 8 8 8 8 8 8 7 7 7 6 7 7 7
10 12 11 13 14 13 13 10 10 10 8 7 8 10 9 8 8 9 9 9 9 9 10 9 9 8 8 8 8 8 8 7 8 7 7 7 7 7 7 6 6 6 6 6
9 10 11 11 13 12 13 11 10 7 11 10 8 8 9 7 6 6 7 8 9 9 9 9 8 8 8 8 8 7 7 7 7 7 7 7 6 6 6 6 6 6 6 6
8 8 11 10 10 10 9 9 8 7 6 8 6 7 7 6 7 7 7 8 8 8 8 8 7 7 7 7 7 7 7 7 6 6 6 6 6 6 6 6 7 6 6 6
7 5 6 9 9 8 10 10 7 5 8 4 1 4 8 6 7 8 7 8 8 8 8 7 7 7 7 6 6 6 6 6 6 6 6 6 6 6 5 5 5 5 5 5
7 6 6 10 8 9 9 8 7 3 1 2 3 6 5 6 7 8 8 8 7 7 7 6 6 6 5 5 5 6 5 5 5 5 5 5 5 5 5 4 4 4 5 5
8 4 6 7 9 7 7 6 6 5 -1 3 5 8 9 9 6 7 7 7 7 6 6 6 5 5 5 5 5 5 4 4 4 4 4 4 4 4 4 4 4 4 4 4
5 5 4 4 5 5 5 6 5 4 3 4 8 5 7 7 7 7 6 6 5 5 5 5 5 5 4 4 4 4 3 3 3 3 4 4 4 4 4 4 3 3 3 3
4 4 4 3 4 5 4 5 5 5 5 5 5 5 7 7 7 6 6 5 5 5 4 4 4 3 3 2 3 2 2 2 2 2 3 3 3 3 3 3 3 3 3 3
3 3 1 1 2 3 4 5 5 4 4 5 4 6 6 4 5 5 5 4 4 4 3 2 2 1 1 1 1 1 1 1 1 1 2 2 2 2 2 3 3 2 2 2
2 2 0 -1 2 4 8 5 6 5 6 5 5 5 5 5 5 4 4 4 4 3 1 1 1 0 0 0 -0 -0 -0 0 0 0 1 1 1 1 2 2 2 2 2 2
4 2 -0 -1 -1 3 6 6 5 4 5 5 5 5 5 5 3 3 4 3 2 1 0 -0 -0 -1 -1 -1 -1 -1 -1 -1 -0 -0 0 0 0 1 1 1 2 2 1 1
2 2 1 -0 -1 1 6 6 7 5 3 5 5 4 3 2 0 3 3 1 0 -0 -1 -2 -2 -2 -3 -3 -2 -2 -2 -2 -2 -1 -1 -0 -0 0 0 0 1 1 1 0
1 1 1 1 -2 1 4 6 6 3 3 5 4 3 2 -0 2 1 0 -0 -1 -1 -2 -3 -3 -3 -3 -3 -3 -3 -3 -3 -3 -2 -2 -2 -1 -1 -0 0 -1 -0 -0 -1
2 0 -1 -0 -2 1 5 5 4 5 5 5 3 3 2 1 0 -0 -1 -2 -3 -3 -3 -3 -3 -3 -3 -3 -3 -3 -3 -3 -3 -3 -3 -3 -2 -1 -1 -1 -1 -1 -1 -1
3 5 1 2 2 5 6 6 7 5 5 4 2 2 1 1 0 -1 -2 -3 -3 -3 -3 -4 -3 -3 -3 -3 -3 -3 -3 -3 -3 -3 -3 -3 -3 -2 -2 -2 -2 -1 -1 -2
3 5 2 4 4 4 6 7 6 5 4 3 2 2 1 -0 -0 -2 -3 -3 -3 -3 -4 -4 -3 -3 -3 -3 -3 -3 -3 -3 -3 -3 -3 -4 -3 -3 -2 -2 -2 -2 -2 -2
4 3 3 2 4 5 6 6 5 5 4 3 2 2 1 -1 -2 -3 -3 -4 -4 -4 -4 -3 -3 -3 -3 -2 -2 -2 -2 -3 -3 -3 -4 -3 -3 -2 -2 -2 -2 -2 -2 -1
3 2 4 5 7 6 6 5 4 4 3 2 1 1 -1 -2 -3 -4 -4 -4 -4 -4 -4 -3 -3 -3 -3 -3 -2 -2 -2 -3 -3 -3 -3 -3 -3 -3 -2 -2 -2 -1 -1 -1

GFSCGP_850_temp_036.txt.gz
Temp
16 14 15 16 16 16 16 16 15 14 15 10 9 9 10 10 10 10 10 11 11 11 11 12 12 12 12 12 12 12 12 12 13 13 14 14 13 13 12 12 11 12 13 13
13 15 16 16 16 17 16 15 14 14 14 11 10 10 10 10 10 10 10 11 11 11 11 11 11 11 11 12 12 11 11 11 11 11 11 11 12 12 12 12 11 11 11 12
15 17 17 17 16 16 15 15 14 15 13 10 9 10 10 10 10 10 10 10 10 11 11 11 11 11 11 11 11 11 11 11 10 10 10 10 10 11 11 11 11 11 11 11
15 16 17 16 16 15 14 15 15 14 13 12 11 10 8 8 9 10 10 10 10 10 10 10 10 10 10 10 10 10 10 10 10 9 9 9 9 9 9 9 9 9 9 10
16 15 15 16 16 15 14 13 13 13 12 12 11 10 9 7 9 9 10 10 10 10 11 11 10 10 10 10 10 10 9 9 9 9 9 8 8 8 8 8 8 8 8 8
14 15 15 15 15 14 12 13 10 8 8 10 11 10 9 7 8 9 10 10 10 10 11 11 10 10 10 10 9 9 9 9 9 8 8 8 8 8 7 7 7 7 7 7
12 14 13 14 14 13 11 9 11 12 11 12 10 10 9 8 7 8 10 10 10 10 10 10 10 10 9 9 9 8 8 8 8 8 8 7 7 7 7 7 7 7 6 6
12 14 12 12 13 12 11 10 10 14 11 10 8 10 10 8 10 10 9 9 9 9 9 10 10 9 9 8 8 7 7 7 7 7 7 7 7 7 7 6 6 6 6 6
10 12 11 12 12 12 11 10 9 9 8 7 8 9 9 8 7 8 8 8 9 9 9 9 9 9 8 8 8 7 7 7 7 7 6 6 6 6 6 6 6 6 6 5
9 12 10 11 12 11 12 9 10 6 11 10 8 7 9 6 5 5 7 8 8 8 8 8 7 7 7 7 7 6 6 6 7 6 6 6 6 6 6 6 6 5 5 5
8 8 11 10 10 10 9 9 7 6 6 8 6 8 6 7 6 5 7 8 8 8 7 7 7 7 7 6 6 6 5 5 5 6 6 5 5 5 5 5 5 5 4 4
6 5 7 10 9 8 9 9 7 5 8 3 1 4 6 5 7 8 7 8 8 7 7 7 7 6 6 5 5 5 5 5 4 4 4 4 4 4 4 5 5 5 4 4
7 6 7 11 9 9 9 8 5 2 1 1 3 7 6 6 6 7 7 7 7 7 7 6 6 5 5 4 4 3 3 3 3 3 3 3 3 3 4 4 4 4 4 4
8 4 7 8 10 7 7 6 5 4 -0 3 5 8 8 6 5 7 7 7 7 6 6 5 5 4 4 3 2 2 2 2 2 2 2 2 2 2 3 3 3 3 3 3
5 5 4 4 4 5 5 6 5 4 4 5 9 6 8 7 5 7 7 6 6 5 4 4 3 3 2 1 1 1 1 1 0 0 0 1 1 1 1 2 2 2 3 3
3 4 3 4 4 4 3 4 4 5 5 4 5 5 7 7 7 6 6 5 4 4 4 3 2 1 1 0 -0 -0 -1 -1 -1 -1 -1 -0 -0 0 0 1 1 1 2 2
2 2 1 2 2 3 5 5 4 4 4 5 4 6 6 5 5 5 5 4 4 4 3 2 1 0 -0 -1 -2 -2 -2 -2 -2 -2 -2 -1 -1 -1 -0 0 0 1 1 2
1 2 0 -0 2 4 9 6 5 5 4 4 4 4 5 5 5 4 5 4 4 2 1 -0 -1 -1 -2 -2 -3 -3 -3 -3 -3 -3 -3 -2 -2 -1 -1 -1 -0 0 0 1
3 2 -0 -0 -1 3 8 5 5 4 5 5 4 4 5 5 4 4 4 3 1 0 -1 -1 -2 -2 -3 -3 -2 -2 -3 -3 -3 -3 -3 -3 -3 -3 -2 -1 -1 -1 -0 -0
1 1 2 -1 -1 2 8 5 6 6 4 5 5 4 4 3 -0 3 3 1 -0 -1 -1 -2 -3 -3 -3 -3 -3 -3 -3 -3 -3 -3 -3 -3 -3 -3 -3 -3 -2 -2 -1 -1
1 0 1 -0 -2 1 3 5 6 4 7 4 6 5 4 -0 2 2 1 0 0 -0 -1 -2 -3 -4 -4 -3 -3 -3 -3 -3 -3 -3 -3 -3 -3 -3 -3 -3 -3 -2 -2 -2
1 0 -1 -1 -2 2 5 3 5 5 6 5 5 4 2 2 1 1 -0 -1 -1 -1 -1 -2 -4 -3 -3 -3 -3 -3 -3 -2 -2 -3 -2 -3 -3 -3 -3 -3 -3 -2 -2 -2
2 4 1 1 2 5 6 8 7 6 5 5 4 3 2 1 1 -0 -1 -2 -3 -2 -3 -4 -3 -3 -3 -3 -3 -3 -3 -2 -2 -2 -2 -3 -3 -3 -4 -3 -3 -3 -2 -2
2 4 2 2 3 5 6 7 7 6 5 5 4 3 2 1 0 -1 -2 -3 -3 -3 -4 -4 -3 -4 -3 -3 -3 -3 -3 -3 -3 -2 -3 -3 -3 -4 -3 -3 -2 -2 -2 -3
4 3 2 1 5 6 7 6 7 6 5 4 3 2 1 0 0 -2 -3 -4 -4 -4 -4 -4 -4 -4 -3 -3 -3 -3 -3 -3 -3 -3 -2 -3 -4 -3 -3 -2 -2 -2 -2 -2
3 2 2 6 9 7 7 7 6 5 5 3 3 2 2 0 -1 -3 -3 -4 -4 -4 -4 -4 -4 -4 -3 -3 -3 -3 -3 -3 -3 -2 -2 -2 -3 -3 -3 -3 -3 -2 -2 -2

GFSCGP_850_temp_039.txt.gz
Temp
16 16 17 16 15 16 16 16 16 15 14 13 11 11 11 10 9 9 10 11 11 11 11 11 11 11 11 11 11 11 11 11 11 11 12 12 12 12 12 12 12 12 12 12
15 16 16 15 15 16 16 15 15 14 13 13 10 11 11 10 10 10 10 10 10 11 11 11 11 11 11 11 10 10 10 10 10 10 10 10 10 10 10 11 11 11 11 11
15 16 16 16 15 16 15 15 14 15 13 11 11 12 10 11 10 10 10 10 10 10 11 11 11 11 10 10 10 10 9 9 9 9 9 9 9 9 9 9 9 10 10 10
15 15 16 15 15 15 15 14 14 14 14 15 12 16 10 10 10 10 10 10 11 11 11 11 11 10 10 10 9 9 9 9 9 9 9 9 8 8 8 8 8 8 8 9
15 15 15 15 15 15 15 13 13 13 13 12 12 13 13 9 10 10 10 10 10 10 11 10 10 10 10 10 9 9 9 9 8 8 8 8 7 7 7 7 7 7 8 8
13 14 14 14 13 14 12 12 11 10 11 13 12 13 16 10 11 10 10 10 10 10 10 10 11 11 10 10 9 9 8 8 8 8 7 7 7 7 7 7 7 6 7 7
13 13 13 13 14 13 12 12 15 16 15 16 11 11 15 11 9 11 10 9 10 10 10 10 10 10 10 9 9 8 8 7 7 7 7 7 7 7 6 6 6 6 6 6
13 14 12 12 13 13 11 12 15 17 15 14 9 14 15 10 9 10 9 9 9 9 9 9 9 9 8 8 7 7 7 6 6 6 6 6 6 6 6 6 6 6 6 6
11 13 11 11 11 12 11 12 10 10 8 11 12 12 11 9 8 7 8 8 9 9 8 8 8 7 7 7 7 6 6 6 5 5 5 5 5 5 5 5 5 5 5 5
8 13 10 11 11 10 11 10 12 10 14 13 12 10 14 9 9 8 8 8 8 8 8 8 7 7 7 7 6 6 5 5 4 4 4 4 4 4 4 4 4 4 4 4
8 9 11 10 10 10 10 10 8 9 10 13 12 14 10 10 10 9 8 8 8 7 7 7 7 7 6 6 5 4 4 3 3 3 3 2 2 3 2 3 3 3 3 4
6 7 10 11 8 8 9 9 9 12 10 6 6 9 9 8 8 7 8 8 7 7 7 6 6 6 5 5 4 3 2 2 2 1 1 1 2 1 1 2 2 2 3 4
7 8 11 12 10 8 8 7 5 5 4 6 10 13 8 6 6 6 7 8 7 7 6 6 6 5 4 3 2 2 1 1 0 0 1 0 0 0 1 1 1 1 2 2
7 5 9 12 11 8 8 7 5 7 6 8 9 13 13 9 8 7 8 8 7 6 6 5 4 3 3 2 1 1 0 -0 -1 -1 -1 -1 -1 -1 -0 -0 -0 0 0 1
6 7 4 5 5 5 6 7 5 6 8 9 13 9 11 10 8 8 7 6 6 6 5 4 3 2 1 1 0 -1 -1 -2 -2 -2 -3 -3 -2 -2 -2 -1 -1 -0 -0 0
3 6 4 5 4 4 5 6 5 6 7 5 7 8 10 9 7 6 6 6 5 5 4 3 2 1 -0 -1 -1 -2 -2 -2 -3 -3 -3 -3 -3 -3 -3 -2 -2 -1 -1 -1
4 4 4 6 3 4 6 6 7 5 5 7 7 9 6 5 5 5 5 5 5 4 3 1 0 -1 -1 -2 -2 -2 -3 -3 -3 -2 -3 -3 -3 -3 -3 -3 -3 -2 -1 -1
2 3 3 4 4 8 11 6 6 6 6 6 6 7 6 5 5 5 5 4 4 3 2 0 -1 -1 -1 -2 -3 -3 -3 -3 -3 -3 -3 -3 -3 -3 -3 -3 -3 -3 -2 -2
2 3 4 4 3 6 10 6 5 5 8 7 6 6 6 5 4 5 5 4 3 2 1 -0 -1 -2 -3 -4 -3 -3 -3 -3 -3 -3 -2 -3 -3 -3 -3 -3 -3 -3 -3 -2
1 1 4 1 2 5 9 6 6 5 7 7 6 5 4 3 5 7 4 2 2 1 0 -2 -3 -4 -4 -3 -3 -3 -3 -3 -3 -3 -3 -2 -2 -3 -2 -3 -3 -3 -3 -3
2 2 3 3 1 3 5 6 6 7 9 6 6 5 4 3 5 4 3 2 1 -0 -1 -3 -4 -4 -3 -3 -3 -3 -3 -3 -3 -3 -3 -3 -2 -2 -2 -3 -4 -3 -3 -3
3 1 1 2 1 3 4 4 6 8 6 7 5 5 5 4 3 2 1 0 0 -0 -2 -3 -4 -4 -4 -3 -3 -3 -3 -3 -3 -3 -3 -3 -2 -3 -3 -3 -3 -3 -4 -3
4 5 3 3 3 6 6 8 9 7 7 6 5 5 4 3 2 1 0 -0 -1 -2 -3 -4 -4 -4 -4 -4 -3 -4 -3 -3 -3 -3 -3 -3 -2 -3 -3 -4 -3 -3 -3 -3
2 3 3 3 4 5 6 8 8 8 7 6 5 4 3 2 2 1 0 -1 -2 -3 -4 -4 -4 -4 -4 -4 -4 -3 -3 -3 -3 -3 -3 -3 -3 -2 -3 -4 -3 -3 -3 -3
4 2 3 2 5 6 8 8 9 8 7 5 4 4 3 2 1 0 -0 -1 -3 -4 -4 -5 -4 -4 -4 -4 -4 -3 -4 -3 -3 -3 -3 -2 -2 -2 -2 -3 -3 -3 -3 -3
3 5 4 8 9 7 8 8 7 7 7 6 4 4 2 2 1 -0 -0 -2 -3 -5 -5 -4 -4 -4 -4 -4 -3 -3 -4 -3 -3 -3 -3 -2 -2 -2 -2 -2 -3 -2 -2 -2

GFSCGP_850_temp_042.txt.gz
Temp
18 22 23 22 21 21 21 21 21 20 18 18 18 17 15 13 13 13 14 14 14 13 12 11 11 11 11 11 11 11 10 10 10 10 10 10 10 10 10 10 11 11 10 10
21 22 20 19 19 20 20 20 21 19 17 18 19 18 16 14 14 14 14 14 14 13 13 12 11 11 11 11 10 10 10 9 9 9 9 9 9 9 9 9 9 9 9 9
21 20 18 19 19 19 20 20 20 19 17 16 16 18 16 14 14 13 13 13 13 12 13 13 12 11 10 10 10 9 9 9 9 8 8 8 8 9 9 9 8 8 8 8
20 18 18 19 19 19 20 18 18 17 18 20 17 22 17 16 14 14 13 13 13 12 12 12 11 11 11 10 9 9 9 9 9 8 8 8 8 8 8 8 8 7 8 8
19 18 18 18 19 18 18 16 16 17 18 17 17 18 21 16 15 15 14 14 13 12 12 11 11 10 10 10 9 9 8 9 8 8 7 7 7 7 7 8 7 7 7 7
18 15 17 18 16 16 16 16 16 16 17 18 19 18 24 17 17 16 15 13 12 12 11 11 11 10 10 9 9 8 8 8 8 7 7 7 7 7 7 7 7 7 7 7
17 17 16 15 17 16 17 18 21 20 19 21 17 17 21 18 16 17 15 13 12 11 11 11 10 10 9 9 8 8 8 7 7 7 7 6 6 6 6 6 6 6 7 7
19 18 16 15 16 17 16 17 20 20 21 21 14 17 21 15 14 15 14 13 11 11 11 10 10 9 9 8 8 8 7 7 7 6 6 6 6 6 6 5 5 6 6 6
18 17 14 14 14 15 16 17 15 17 15 17 20 19 18 14 14 13 12 12 11 10 10 10 9 8 8 8 8 7 7 6 6 6 6 6 5 5 5 5 5 4 5 5
14 18 14 14 13 13 15 15 16 17 18 19 20 18 21 14 14 13 13 12 11 10 9 9 9 8 8 7 7 6 6 6 5 5 5 4 4 4 4 4 4 4 4 4
13 14 14 13 14 16 14 15 14 15 16 19 19 21 19 18 17 16 14 13 12 10 9 9 8 8 7 7 6 6 5 5 4 4 3 3 3 3 3 3 3 3 3 3
11 14 17 17 12 11 13 15 16 17 17 15 14 16 16 15 14 14 15 14 12 9 8 8 8 7 7 6 6 5 4 4 3 3 2 2 2 2 2 2 2 3 3 3
11 14 17 16 13 12 13 13 13 12 12 14 16 18 15 13 13 13 12 12 11 9 8 8 7 7 6 6 5 4 3 3 2 1 1 1 1 0 1 1 1 1 2 2
9 12 15 18 15 13 13 12 11 14 13 16 15 18 19 17 15 14 12 11 10 10 8 7 6 6 5 5 4 3 2 2 1 0 0 -0 -0 -0 -0 -0 -0 0 1 1
10 13 11 13 12 11 12 13 12 11 14 14 17 17 17 17 16 14 12 9 8 8 7 7 6 5 4 3 3 2 1 0 0 -0 -0 0 -0 -0 -1 -1 -1 -1 -0 0
8 12 9 12 8 8 9 11 11 11 12 12 13 13 15 14 11 11 10 9 8 8 7 5 4 4 3 2 1 1 0 -0 -0 -1 -1 -1 -1 -2 -2 -2 -2 -2 -1 -1
10 10 10 12 9 10 12 13 13 13 12 12 13 16 13 12 11 10 9 8 7 6 5 4 3 2 1 1 -0 -0 -1 -1 -2 -2 -2 -2 -2 -2 -2 -2 -3 -2 -2 -2
9 10 9 10 10 12 14 12 11 12 12 11 11 12 12 11 9 8 7 7 6 5 4 3 2 1 0 -1 -1 -1 -3 -3 -3 -2 -2 -2 -2 -3 -2 -2 -2 -3 -2 -3
7 9 9 9 10 13 14 11 10 10 13 13 12 12 12 9 7 9 6 5 4 3 2 1 0 -0 -1 -1 -1 -3 -3 -3 -3 -3 -2 -3 -3 -2 -2 -2 -2 -2 -2 -3
6 7 9 7 7 10 14 9 8 8 11 12 11 11 11 8 10 11 5 4 3 2 1 -0 -1 -1 -1 -1 -2 -3 -3 -3 -3 -2 -3 -3 -3 -2 -2 -2 -2 -3 -3 -3
7 7 7 9 7 9 11 8 7 10 13 11 9 10 8 8 9 6 4 3 2 1 -0 -1 -2 -2 -2 -3 -3 -3 -3 -3 -3 -3 -3 -3 -2 -2 -2 -2 -2 -3 -3 -3
9 8 8 8 6 8 9 7 9 13 10 8 8 8 7 6 5 4 3 1 0 -0 -1 -2 -2 -2 -3 -3 -3 -3 -3 -3 -3 -3 -3 -3 -2 -2 -2 -2 -3 -3 -3 -3
9 11 11 9 10 10 8 10 10 8 8 8 7 7 5 5 4 3 2 1 -0 -1 -2 -2 -2 -3 -3 -3 -3 -3 -3 -3 -3 -3 -3 -3 -2 -2 -2 -2 -2 -3 -3 -3
8 8 8 8 11 10 11 10 9 8 7 7 6 5 4 4 3 1 1 -0 -1 -1 -2 -2 -2 -3 -3 -3 -3 -3 -3 -3 -4 -4 -3 -3 -3 -2 -2 -2 -2 -2 -2 -3
9 7 10 11 11 10 9 10 9 8 7 7 6 5 3 2 2 0 -0 -1 -1 -2 -2 -2 -3 -3 -3 -4 -4 -3 -4 -3 -4 -3 -3 -3 -2 -2 -2 -2 -2 -2 -2 -2
8 9 10 10 12 10 9 8 7 6 6 6 5 3 4 3 1 1 -1 -1 -2 -2 -3 -3 -3 -4 -4 -4 -4 -4 -4 -4 -4 -3 -3 -3 -3 -2 -2 -2 -2 -1 -1 -2

GFSCGP_850_temp_045.txt.gz
Temp
22 23 25 26 25 24 24 24 24 25 22 20 22 22 21 17 16 17 17 17 17 16 14 14 13 13 13 13 13 13 12 12 11 11 11 11 10 11 11 10 10 10 10 10
23 24 23 22 22 22 23 23 24 24 21 20 22 22 22 19 17 17 17 17 17 16 15 14 14 13 13 13 13 12 12 11 11 10 10 9 10 10 9 10 10 10 9 9
24 22 21 21 21 22 23 22 23 22 21 21 20 22 22 20 17 17 17 17 17 16 16 15 15 14 13 13 12 11 11 11 10 10 10 9 9 9 9 9 9 9 9 9
23 21 21 21 22 22 22 21 20 20 20 22 21 23 22 20 17 17 16 16 16 15 15 14 14 14 13 13 12 11 11 10 10 10 9 9 8 8 9 8 8 9 9 8
21 20 20 20 21 21 21 19 19 19 20 21 22 20 23 21 18 18 17 16 16 15 15 15 14 13 12 12 11 10 10 10 10 9 9 8 8 8 8 8 8 8 8 8
21 18 20 21 19 19 18 19 19 19 20 20 23 21 25 21 21 20 18 17 16 15 14 13 13 12 12 11 10 10 10 9 9 9 9 8 8 8 7 7 7 7 7 7
20 20 19 18 19 19 18 20 21 21 20 23 21 20 24 23 20 21 20 18 16 15 14 13 13 12 11 10 10 9 9 9 9 9 8 8 7 7 7 7 7 7 7 7
22 21 19 18 19 20 20 20 21 21 23 23 19 20 22 19 18 18 18 17 15 14 13 13 12 11 11 10 10 10 9 9 8 8 8 7 7 7 6 6 6 6 6 6
21 21 17 16 17 17 19 19 18 20 22 20 23 22 19 18 18 17 17 16 15 14 13 12 12 11 11 10 10 9 9 8 8 8 7 7 6 6 5 5 5 5 5 5
18 19 17 16 16 16 17 17 19 19 20 21 24 23 22 18 18 17 17 16 14 13 12 12 12 11 10 10 9 9 8 8 7 7 6 6 5 5 5 4 4 4 4 4
16 18 17 16 17 20 17 18 17 18 20 20 20 22 22 21 20 18 17 16 15 14 13 12 11 11 10 10 9 8 8 7 6 6 5 4 4 4 4 3 3 3 3 3
15 17 19 20 15 15 16 18 19 18 20 19 17 18 22 19 18 17 18 17 16 15 13 11 10 10 10 9 9 8 7 6 5 5 4 3 3 3 2 2 2 2 2 2
15 18 18 18 15 15 15 18 17 18 15 15 17 19 19 17 17 16 15 15 14 14 12 11 11 10 9 8 8 7 6 5 4 4 3 3 2 2 2 2 2 1 1 1
11 16 17 18 18 15 17 16 16 16 16 18 19 20 21 21 18 18 17 15 14 13 12 11 9 9 8 7 7 6 5 4 3 3 2 2 2 2 1 1 0 -0 -1 -1
13 15 17 16 16 16 15 15 16 15 16 16 18 18 19 18 17 16 14 13 12 11 11 10 9 8 7 6 5 5 4 3 2 2 2 1 1 0 -0 -1 -1 -1 -1 -1
13 14 13 14 15 13 13 14 15 15 15 16 16 16 18 14 14 14 14 13 12 11 10 9 7 6 6 5 4 3 2 2 1 0 0 -0 -1 -2 -2 -2 -2 -2 -2 -2
13 13 13 14 13 14 14 16 17 17 16 15 14 16 16 15 14 13 13 12 11 10 8 7 6 5 4 4 3 2 2 1 0 -0 -1 -2 -2 -2 -2 -2 -2 -2 -2 -2
13 12 12 11 13 13 17 17 16 14 14 15 15 14 14 14 13 11 11 10 10 8 7 6 5 4 3 2 2 1 1 0 -0 -2 -2 -2 -2 -2 -2 -2 -2 -2 -2 -2
11 12 12 10 13 15 16 12 13 13 14 15 15 14 14 13 12 12 10 8 7 6 5 4 3 3 2 1 1 0 -0 -1 -2 -2 -2 -2 -2 -3 -3 -3 -2 -2 -2 -2
9 10 11 13 9 11 14 12 11 11 13 14 13 13 13 12 11 13 9 7 6 5 4 3 2 1 1 1 -0 -1 -1 -2 -3 -3 -2 -3 -3 -3 -3 -2 -2 -2 -2 -2
10 10 9 11 10 11 15 11 10 12 13 13 12 11 11 11 11 10 8 6 5 4 3 2 1 1 1 0 -1 -1 -2 -2 -3 -3 -3 -3 -3 -3 -3 -3 -2 -2 -2 -2
12 11 11 11 10 9 12 10 12 13 11 11 10 10 9 9 9 8 7 5 4 3 2 1 1 1 0 -0 -1 -1 -2 -2 -3 -3 -3 -3 -3 -3 -3 -2 -2 -2 -2 -2
11 13 13 13 12 14 12 11 11 10 10 10 9 9 8 8 8 7 6 4 3 2 1 1 0 0 -0 -0 -1 -2 -3 -3 -3 -3 -3 -3 -3 -3 -3 -2 -2 -2 -2 -2
13 12 10 11 13 13 13 13 11 10 9 8 8 8 8 7 6 6 4 3 2 2 1 0 -0 -0 -0 -1 -2 -3 -3 -3 -3 -3 -3 -3 -3 -3 -2 -2 -2 -2 -2 -2
13 11 12 12 12 12 12 11 10 9 8 8 8 7 6 6 5 4 3 2 2 1 0 -0 -1 -1 -1 -2 -3 -3 -3 -3 -3 -3 -3 -3 -3 -3 -2 -2 -2 -2 -1 -1
11 11 11 11 10 10 10 9 9 8 7 7 7 7 6 4 4 3 2 2 1 0 -1 -1 -1 -2 -2 -4 -4 -4 -3 -3 -3 -3 -3 -3 -3 -3 -2 -2 -1 -1 -1 -1

GFSCGP_850_temp_048.txt.gz
Temp
22 21 21 24 24 23 22 22 23 23 21 21 20 20 21 18 17 18 18 18 17 17 15 14 14 13 13 13 13 13 12 12 11 12 12 12 11 11 11 11 11 10 10 10
22 20 23 23 22 22 22 22 22 23 21 20 19 20 21 18 17 17 18 18 18 17 15 14 14 13 13 13 13 12 12 12 12 11 10 10 9 9 9 9 9 9 9 9
22 23 22 22 22 22 22 21 21 21 21 21 19 18 19 20 18 17 18 18 18 17 16 16 15 14 14 13 13 12 12 11 11 10 10 10 9 9 9 8 8 8 8 8
22 21 21 21 21 22 20 20 21 20 19 18 20 17 22 18 16 17 17 17 17 17 16 16 15 14 14 13 13 12 11 11 10 10 10 9 9 8 8 8 8 8 8 8
21 21 21 20 21 21 19 19 19 19 18 17 19 17 20 18 16 16 17 17 17 16 16 15 15 14 13 13 12 12 11 10 10 10 9 9 8 8 8 7 7 7 7 7
20 19 20 20 20 19 19 19 18 18 17 15 19 18 19 18 18 17 17 17 17 16 16 15 14 13 13 12 11 10 10 10 9 9 9 8 8 8 8 7 7 7 7 7
21 20 19 18 19 18 18 17 17 16 16 18 21 19 20 19 19 20 18 18 17 16 16 15 14 13 12 12 11 10 10 10 9 9 8 8 8 7 7 7 6 6 6 6
20 19 19 19 19 17 18 18 17 18 18 19 20 17 20 18 19 19 20 18 17 16 15 14 13 13 12 11 11 10 10 9 9 8 8 8 7 7 6 6 5 5 5 5
19 18 17 17 18 17 18 17 17 17 19 18 19 20 18 18 17 18 18 17 16 15 14 14 13 12 12 11 11 10 10 9 9 8 8 7 6 6 5 5 4 4 4 4
17 17 18 16 16 17 16 17 16 16 17 18 20 19 17 17 16 17 17 16 16 15 14 13 13 12 12 11 10 10 9 9 8 8 7 6 5 5 4 4 3 3 3 3
16 17 16 16 15 18 15 16 16 16 16 16 15 17 20 18 18 15 17 17 16 15 14 13 13 12 11 11 10 10 9 8 7 7 6 5 4 4 3 3 2 2 2 2
14 14 16 18 16 15 16 17 18 15 16 15 13 14 17 16 17 17 17 17 16 15 15 14 13 11 11 10 10 9 8 7 6 6 5 4 3 3 2 2 2 2 2 1
13 15 15 14 15 15 15 17 16 15 13 12 11 14 16 17 17 17 16 15 15 14 14 13 12 11 10 9 8 8 7 6 5 4 3 3 2 2 1 1 1 0 -0 -0
11 14 15 14 16 15 15 16 17 15 10 13 14 16 17 16 15 15 15 14 13 13 13 12 11 10 9 8 7 6 6 5 4 3 2 2 1 1 0 -0 -1 -1 -1 -1
12 13 14 15 15 15 15 15 15 14 14 13 14 14 15 14 13 14 15 14 13 12 12 11 10 9 8 7 6 5 4 3 2 2 1 1 -0 -0 -1 -2 -2 -1 -2 -2
12 12 13 12 16 14 13 13 13 14 14 14 14 14 14 15 15 15 14 13 13 12 11 10 9 7 6 6 5 4 3 2 2 1 0 -0 -1 -2 -2 -2 -2 -2 -2 -2
13 11 11 11 14 13 12 15 15 14 15 15 13 13 15 13 13 13 13 12 12 11 10 8 7 6 5 4 3 2 2 1 1 -0 -1 -1 -2 -2 -2 -2 -2 -2 -2 -2
12 12 11 8 11 10 15 14 14 15 14 13 13 13 14 13 13 12 12 11 11 9 8 7 5 5 4 3 2 2 1 1 -1 -1 -1 -2 -2 -2 -3 -3 -3 -3 -3 -3
11 11 9 8 9 12 14 12 12 11 12 13 11 12 13 12 12 12 10 9 9 7 6 5 4 3 3 2 1 1 0 -1 -1 -1 -2 -2 -3 -3 -3 -3 -3 -3 -3 -3
10 9 9 10 8 8 12 11 11 11 8 12 11 11 11 11 6 8 10 9 8 7 5 4 3 2 2 1 1 0 -0 -1 -1 -2 -2 -3 -3 -3 -3 -3 -3 -3 -3 -2
8 8 7 7 7 9 13 11 10 10 8 11 10 10 9 8 9 9 9 8 7 6 4 3 2 2 1 1 0 -0 -1 -1 -2 -3 -3 -3 -3 -3 -3 -3 -3 -3 -2 -2
9 8 8 8 8 8 11 10 11 11 12 11 9 9 9 9 8 8 8 7 6 4 3 2 2 1 1 0 -0 -0 -1 -2 -3 -3 -3 -3 -3 -3 -3 -3 -3 -2 -2 -2
9 11 9 10 9 13 12 12 12 10 9 9 9 9 8 8 8 7 7 6 5 4 3 2 1 0 0 -0 -1 -1 -2 -3 -3 -3 -3 -3 -3 -3 -3 -3 -2 -2 -2 -2
12 13 8 9 12 12 12 11 10 10 9 9 8 8 8 7 7 6 6 5 4 3 2 1 0 -0 -1 -1 -2 -2 -3 -3 -3 -3 -3 -3 -3 -3 -3 -2 -2 -1 -1 -1
11 10 10 10 11 11 10 9 9 8 8 8 7 7 7 6 6 6 5 4 3 2 1 0 -0 -1 -1 -2 -2 -3 -3 -3 -3 -3 -3 -3 -3 -3 -3 -2 -1 -1 -1 -0
9 10 8 8 9 8 8 8 8 8 8 7 6 6 6 6 6 5 4 3 2 1 1 -1 -1 -1 -1 -2 -2 -3 -3 -3 -4 -4 -3 -3 -3 -3 -2 -1 -0 0 -0 0

GFSCGP_850_temp_051.txt.gz
Temp
21 17 17 18 19 20 21 20 19 20 20 19 17 16 16 16 17 17 17 16 16 16 15 15 14 13 13 13 13 13 13 13 13 13 13 13 13 12 11 11 11 10 9 9
18 18 20 21 21 21 20 20 18 19 19 19 17 17 16 15 16 17 17 17 16 16 15 15 15 14 14 13 13 13 13 12 12 12 11 10 10 10 10 10 9 8 8 8
18 20 21 21 21 21 20 19 18 19 19 18 17 15 17 15 15 17 17 18 17 16 15 15 15 14 14 13 13 13 13 12 12 11 10 10 10 10 9 9 9 8 8 8
20 20 20 20 20 20 19 18 18 18 16 15 18 13 15 14 13 14 16 17 17 16 16 16 15 14 14 13 13 13 12 12 11 11 10 10 9 9 9 8 8 8 7 7
18 19 19 19 19 19 18 18 18 18 16 15 15 14 13 13 14 13 14 17 17 17 16 16 15 14 14 14 13 13 12 12 11 10 9 9 9 8 8 8 7 7 7 6
18 19 19 18 18 18 18 18 16 16 13 12 14 14 14 14 15 14 14 17 17 17 16 16 15 15 14 13 13 12 12 11 10 9 9 9 8 8 8 7 7 7 6 6
18 17 17 18 17 17 17 14 12 14 12 13 17 15 15 17 16 16 14 16 17 16 16 15 15 14 14 13 12 12 11 10 10 9 9 8 8 8 7 7 6 6 5 5
16 16 16 18 17 16 15 14 12 16 14 15 16 16 16 15 17 18 18 18 17 16 16 15 15 14 13 12 12 12 10 10 10 9 9 8 8 7 7 6 5 5 4 4
14 15 16 15 16 16 16 15 15 15 14 13 14 16 16 15 16 16 15 16 16 16 15 15 14 14 13 12 12 11 10 10 9 9 8 8 7 6 6 5 4 4 3 2
15 15 16 15 15 16 15 15 14 11 14 15 14 16 15 15 15 15 14 15 16 16 15 14 14 13 13 12 11 11 10 10 9 8 8 7 6 5 5 4 3 2 2 2
14 13 15 15 14 13 13 13 14 12 11 12 12 13 15 15 14 14 14 16 16 16 15 15 14 13 12 11 11 10 9 9 8 8 7 6 5 4 3 2 2 2 1 1
12 11 12 14 14 14 15 15 13 10 13 10 7 10 14 12 14 16 15 15 15 15 14 14 14 13 12 11 10 10 9 8 8 7 6 5 4 3 2 2 1 1 0 0
11 11 11 13 13 14 15 15 15 11 7 10 8 11 13 14 15 16 15 15 14 14 14 13 12 12 11 10 10 9 9 8 7 6 5 3 2 2 1 0 -0 -0 -1 -1
11 10 11 10 13 13 14 15 15 12 5 9 9 12 13 12 13 13 14 14 14 13 13 13 12 11 10 10 9 8 7 6 5 4 2 2 1 1 -0 -0 -1 -2 -2 -2
9 11 12 12 12 13 13 13 13 12 11 11 13 12 12 12 13 14 14 13 12 12 12 11 11 10 9 8 8 6 5 4 3 2 1 1 0 -0 -1 -2 -2 -2 -2 -2
9 10 11 10 13 13 12 11 11 11 12 11 11 11 12 13 13 12 12 12 12 12 11 10 9 8 8 7 5 5 4 2 2 1 1 -0 -1 -1 -2 -2 -2 -3 -3 -3
9 8 7 8 9 10 10 12 13 13 13 13 12 11 11 10 11 11 11 12 11 10 9 8 8 7 6 5 4 3 2 1 1 1 -0 -1 -2 -2 -3 -3 -3 -3 -3 -3
9 9 6 4 7 7 12 12 11 13 11 10 10 9 10 10 10 11 11 10 10 10 9 8 7 6 5 4 3 2 1 1 0 -1 -1 -2 -2 -3 -3 -3 -3 -3 -3 -3
8 6 5 4 3 8 12 10 11 11 10 9 8 8 9 10 10 10 10 9 9 8 8 7 6 5 4 3 2 1 1 -0 -1 -1 -2 -2 -3 -3 -3 -3 -3 -3 -3 -3
7 5 4 5 3 4 10 11 11 10 5 9 10 9 9 9 5 4 9 9 8 8 7 6 5 4 3 2 1 0 -0 -1 -1 -1 -3 -3 -3 -4 -3 -3 -3 -3 -3 -3
5 4 3 1 1 5 8 10 11 8 6 9 9 9 8 6 8 8 8 8 7 7 5 5 4 3 2 1 0 -0 -1 -1 -2 -3 -3 -3 -3 -3 -3 -3 -3 -3 -3 -2
5 2 3 3 3 5 11 10 11 8 9 9 9 9 8 8 8 7 7 7 6 6 5 4 3 2 1 0 -0 -1 -1 -2 -3 -3 -3 -3 -4 -3 -3 -3 -3 -2 -1 -1
7 7 5 5 5 10 11 9 9 9 8 8 8 8 7 7 7 7 6 6 5 4 4 3 2 1 1 -0 -1 -1 -2 -3 -3 -3 -3 -4 -3 -3 -3 -3 -2 -1 -1 -0
9 10 5 6 9 9 8 9 9 8 7 7 7 7 6 6 6 6 6 5 4 4 3 2 1 1 0 -1 -1 -2 -3 -3 -3 -3 -3 -3 -3 -3 -3 -2 -1 -1 -1 -1
8 8 7 6 8 9 9 8 7 7 7 7 7 6 6 5 5 5 5 4 4 3 2 1 0 -0 -1 -1 -2 -3 -3 -3 -3 -3 -3 -4 -3 -3 -2 -2 -1 -1 -1 -1
9 6 5 4 7 7 7 7 7 6 6 6 6 5 5 5 4 4 4 3 3 2 1 0 -0 -1 -1 -2 -2 -3 -3 -3 -4 -4 -4 -4 -3 -3 -2 -1 -1 -1 -1 -0

GFSCGP_850_temp_054.txt.gz
Temp
20 18 18 18 18 18 20 20 19 18 19 17 15 15 15 16 15 15 15 15 15 15 15 15 15 14 14 13 13 13 13 13 13 13 13 13 12 12 11 11 11 10 10 10
17 18 18 19 20 20 20 19 18 18 19 18 17 16 16 14 14 15 16 15 15 15 14 15 15 15 14 14 13 13 13 13 12 12 12 12 11 11 11 10 10 9 9 8
17 20 20 21 20 20 18 18 18 18 17 17 16 15 16 15 15 15 15 16 16 15 15 15 15 15 14 14 13 13 13 12 12 12 12 11 11 10 10 10 9 9 8 8
18 19 20 19 19 18 18 18 18 18 16 15 16 13 13 14 13 13 15 15 16 15 15 15 15 15 14 14 13 13 13 13 12 11 11 11 10 9 9 9 8 8 8 7
18 18 18 18 18 18 17 17 17 17 14 14 13 13 13 13 14 12 13 16 16 16 16 15 16 15 14 14 13 13 13 13 12 12 11 10 9 9 9 8 8 7 7 7
17 18 18 18 18 17 17 17 13 11 11 11 13 13 13 13 14 13 13 16 16 16 16 15 15 14 14 14 13 13 13 12 12 11 10 9 9 9 8 8 7 7 6 6
17 17 17 18 17 16 15 12 12 13 12 13 14 13 13 14 15 15 13 16 16 16 16 15 15 14 14 13 14 13 13 12 11 10 10 9 9 8 8 7 6 6 5 5
14 15 16 17 16 16 15 13 11 15 13 14 14 14 15 15 15 15 16 17 17 16 16 16 16 15 14 14 14 13 12 11 10 10 9 9 8 8 7 6 5 5 4 4
14 15 15 15 15 16 16 14 13 13 12 11 12 15 14 15 13 14 14 16 16 16 16 16 15 15 14 14 13 12 11 10 10 9 9 8 8 7 6 5 5 4 3 2
14 14 15 15 15 15 15 14 13 10 14 14 12 14 13 15 15 13 13 15 16 16 16 15 15 15 14 13 12 11 10 10 9 9 8 7 6 6 5 5 4 3 2 2
13 13 14 14 13 12 12 13 12 10 9 11 11 12 13 14 14 14 14 15 16 16 15 15 14 14 13 12 11 10 10 9 9 8 7 6 6 6 5 4 3 2 1 0
11 10 12 13 13 14 13 13 11 10 12 8 5 9 13 12 13 15 15 14 14 14 13 14 13 13 12 11 10 10 9 8 8 7 7 6 5 4 3 2 1 -0 -0 -0
11 10 10 13 12 13 14 14 13 8 6 9 7 10 12 12 13 13 13 13 14 13 13 13 13 13 11 10 10 9 8 7 7 7 5 5 3 2 1 1 -0 -0 -1 -1
10 9 10 10 13 12 13 14 13 10 4 9 8 11 12 11 12 13 13 13 13 13 13 12 12 11 10 9 8 8 7 7 6 5 4 3 2 1 1 -0 -1 -1 -2 -3
9 10 11 11 11 11 12 12 12 11 10 10 11 11 11 10 11 11 11 12 12 12 11 11 10 9 9 8 8 7 7 6 5 4 3 2 1 1 -0 -1 -1 -2 -3 -3
8 10 10 10 10 9 11 11 10 9 10 10 10 10 11 10 11 11 11 11 10 10 10 9 9 9 8 7 7 6 5 4 2 1 1 1 -0 -1 -1 -2 -3 -3 -3 -3
8 7 6 9 7 9 9 12 12 12 11 12 11 9 8 8 9 10 10 10 9 9 9 9 9 8 7 6 5 4 3 2 1 1 0 -1 -1 -1 -2 -3 -3 -3 -3 -3
7 7 5 3 6 8 10 11 10 8 8 8 8 8 9 9 9 10 10 9 8 8 8 8 7 6 6 5 4 3 2 1 1 -0 -1 -1 -1 -3 -3 -4 -3 -3 -3 -3
7 5 4 4 2 7 10 11 11 11 9 9 9 8 9 8 8 9 9 8 8 8 7 7 6 5 4 3 3 2 2 1 -0 -1 -1 -2 -3 -3 -3 -3 -3 -3 -3 -3
5 3 4 3 3 5 9 10 11 9 5 9 9 8 7 8 5 4 8 7 7 7 7 6 5 4 3 3 2 1 1 -0 -1 -1 -2 -2 -3 -3 -3 -3 -3 -3 -3 -2
5 3 4 1 1 4 6 9 10 9 6 8 8 8 8 6 7 7 7 7 7 6 6 5 4 4 3 2 2 1 0 -1 -1 -2 -2 -3 -3 -3 -3 -3 -3 -3 -2 -1
5 2 2 1 2 5 9 9 8 7 8 8 7 7 7 7 6 6 6 6 6 6 5 4 3 3 2 1 0 -0 -1 -1 -2 -2 -2 -3 -3 -4 -3 -3 -3 -2 -1 -1
6 7 4 4 5 8 9 9 8 8 7 7 6 6 6 5 5 5 5 5 5 5 4 3 3 2 2 1 0 -1 -2 -2 -3 -2 -3 -3 -3 -4 -3 -3 -2 -1 -1 -1
8 8 5 6 8 8 8 8 7 7 6 6 6 6 5 5 5 4 4 5 4 4 3 2 2 2 1 0 -1 -2 -2 -3 -3 -3 -4 -4 -4 -3 -3 -2 -1 -1 -1 -1
8 8 6 5 7 7 6 6 6 6 6 6 6 5 5 4 4 4 4 4 3 3 2 2 1 0 -0 -1 -1 -2 -3 -3 -3 -4 -4 -4 -3 -3 -3 -2 -1 -1 -1 -1
7 6 5 5 8 7 6 6 7 6 6 5 5 5 5 4 4 3 3 3 3 2 2 2 1 -0 -1 -1 -2 -2 -3 -3 -4 -4 -4 -4 -4 -3 -3 -2 -1 -1 -1 -1

GFSCGP_850_temp_060.txt.gz
Temp
18 17 17 16 17 18 17 17 18 18 17 17 15 13 14 15 13 13 14 14 15 15 15 15 15 14 14 14 14 14 13 13 13 13 13 12 12 12 12 11 11 11 10 10
16 16 18 18 17 18 18 18 17 17 17 16 15 14 14 13 12 14 15 14 15 14 14 15 15 14 14 14 14 14 13 13 13 13 12 12 12 12 11 11 11 10 10 9
16 19 17 18 18 18 18 17 17 17 16 15 14 14 15 14 13 14 14 14 14 15 15 14 15 15 14 14 14 14 13 13 13 12 12 12 11 11 11 11 10 9 9 8
18 18 19 18 18 17 18 16 17 17 15 14 14 13 14 13 12 12 13 12 13 15 15 15 15 15 15 15 14 13 13 13 13 12 11 11 11 11 11 10 10 9 9 8
17 17 18 18 17 17 17 15 15 15 13 13 13 12 13 12 14 12 12 12 13 14 15 15 15 16 15 14 14 13 13 13 12 12 11 11 10 10 10 9 9 8 8 8
15 17 16 16 14 15 14 14 11 10 10 12 13 12 13 13 13 11 13 13 14 14 15 15 15 15 14 14 14 13 13 12 12 11 11 10 10 10 9 9 8 8 8 8
15 15 16 16 15 15 14 13 12 13 12 12 12 12 13 13 13 12 10 13 15 15 15 15 15 15 15 14 14 13 13 12 11 11 10 10 9 9 8 8 8 8 7 7
13 15 15 14 15 14 14 13 11 15 13 12 11 12 14 13 13 12 12 14 15 15 15 15 15 14 14 14 13 13 12 12 11 11 10 9 9 8 8 7 7 6 6 5
13 15 14 14 14 14 13 12 12 10 9 10 11 12 14 11 11 12 13 14 14 14 14 14 14 14 14 13 13 12 12 11 11 10 9 8 8 8 7 7 6 5 5 4
13 14 13 14 14 13 14 11 12 9 13 13 11 11 12 12 12 11 10 11 13 13 13 13 13 13 13 12 12 12 12 11 9 8 8 8 8 7 6 5 5 4 4 3
12 12 13 13 13 11 11 11 8 8 8 11 11 11 9 12 11 9 9 11 12 12 12 12 12 12 12 12 12 12 10 9 8 7 7 7 7 6 5 4 4 3 3 2
10 9 11 13 11 12 12 12 9 9 11 6 4 8 11 10 10 10 10 11 11 11 11 12 12 11 11 11 10 9 8 8 7 7 7 6 6 5 4 4 3 3 3 2
10 9 10 12 11 11 12 11 8 6 5 6 7 10 10 9 9 9 10 10 11 11 11 11 11 11 11 10 9 9 8 7 7 6 6 6 5 4 4 3 3 2 2 2
10 7 10 10 13 11 12 12 9 8 4 7 7 10 11 8 8 9 10 10 10 10 10 10 10 9 9 9 9 8 7 6 6 6 5 4 4 3 2 2 2 2 1 0
8 10 9 10 9 10 11 11 9 9 9 9 10 8 10 9 8 9 9 10 10 10 9 8 8 8 7 8 7 7 6 6 5 4 4 3 2 2 2 2 1 1 -0 -2
6 9 9 11 8 8 9 9 9 9 9 7 8 8 8 8 9 9 9 9 9 9 8 7 7 7 7 7 6 5 5 4 4 3 2 2 2 1 1 1 1 -0 -1 -2
7 6 6 9 6 7 9 9 9 9 8 9 9 8 8 8 8 9 9 9 8 8 7 7 7 7 6 6 5 4 4 3 3 2 2 1 1 1 0 -0 -0 -1 -2 -2
6 5 4 4 7 8 10 8 9 9 9 8 7 7 8 8 8 9 8 7 7 6 6 6 6 6 6 5 4 3 3 2 2 1 1 1 1 0 -1 -1 -1 -2 -3 -2
5 4 3 3 2 7 10 8 9 10 10 7 7 7 8 8 7 8 7 7 6 6 6 5 5 5 4 4 3 3 2 1 1 1 1 0 -0 -1 -1 -1 -3 -3 -3 -2
4 2 4 3 3 6 9 9 10 9 6 7 8 7 7 6 3 3 6 6 6 5 5 5 5 4 3 3 2 2 1 1 0 0 -0 -0 -1 -2 -2 -4 -3 -3 -3 -2
3 1 2 1 1 4 6 8 9 8 7 7 8 7 6 4 6 6 5 5 5 4 4 4 4 3 3 2 1 1 1 0 -0 -1 -1 -1 -2 -3 -4 -4 -4 -3 -2 -2
5 2 1 0 1 6 7 7 8 6 7 7 6 6 6 5 5 5 5 4 4 4 4 3 3 3 2 1 1 0 -0 -1 -1 -1 -1 -1 -2 -4 -4 -3 -4 -3 -3 -3
5 6 3 3 4 7 8 7 7 8 7 6 6 5 5 5 5 5 4 4 3 3 3 3 2 2 2 1 0 -0 -1 -2 -1 -1 -2 -2 -2 -4 -4 -4 -3 -3 -3 -3
6 5 3 4 6 5 7 7 7 7 7 6 5 5 5 5 4 4 4 3 3 3 3 2 2 1 1 0 -0 -1 -2 -2 -2 -2 -2 -2 -4 -4 -4 -4 -4 -3 -3 -3
5 5 4 3 5 6 6 6 6 6 6 5 5 5 5 4 4 4 4 4 3 2 2 1 1 1 1 -0 -1 -2 -2 -2 -2 -3 -3 -5 -4 -4 -4 -4 -4 -3 -3 -3
5 4 4 4 7 6 7 6 6 6 5 5 5 5 4 4 4 4 4 3 3 2 2 1 1 0 0 -1 -1 -2 -2 -2 -3 -4 -4 -5 -4 -5 -4 -4 -3 -4 -3 -3

GFSCGP_850_temp_063.txt.gz
Temp
17 18 18 18 17 18 18 18 19 18 17 17 16 16 17 15 13 13 14 14 14 15 15 14 14 14 14 13 13 13 13 13 13 12 12 12 12 12 11 11 11 11 11 10
16 18 17 16 16 17 18 18 18 17 16 17 15 16 17 14 13 13 14 13 14 14 14 14 14 14 14 14 13 13 13 13 13 12 12 12 12 12 11 11 11 10 10 10
17 17 17 18 17 17 17 17 17 18 16 15 14 16 16 14 13 13 13 13 14 14 15 15 14 14 14 14 14 13 13 13 13 12 12 12 12 11 11 11 10 10 9 9
17 17 18 17 17 17 17 16 17 16 16 17 14 17 15 14 15 13 12 12 12 13 14 15 15 15 15 14 14 13 13 13 12 12 12 12 12 11 11 10 10 9 9 9
17 17 17 17 17 17 16 14 15 14 14 14 14 15 16 14 15 15 13 12 12 12 14 15 15 15 15 14 14 13 13 13 12 12 12 12 11 10 10 10 9 9 8 8
15 16 16 15 14 14 13 14 12 11 12 14 13 14 16 15 14 13 13 12 13 13 14 14 14 14 14 14 13 13 13 13 12 12 12 11 11 10 9 8 8 8 8 8
15 14 15 15 15 14 14 14 15 15 15 15 12 13 15 13 13 11 11 11 13 14 14 14 14 14 14 14 13 13 13 12 12 12 11 10 10 9 8 8 8 7 7 7
15 16 14 14 14 15 13 14 15 16 15 14 12 14 15 13 11 11 11 11 13 13 14 14 14 14 14 13 13 13 13 12 12 11 10 9 8 8 7 7 7 7 6 6
14 15 13 13 13 13 13 14 12 12 10 12 13 13 14 13 12 10 10 12 12 12 13 13 14 13 13 13 13 13 12 12 11 10 9 8 7 7 7 7 6 6 5 5
12 14 13 13 13 12 13 12 14 12 15 15 14 13 15 13 12 10 10 9 11 12 13 13 13 13 13 12 12 12 12 11 10 9 8 7 7 7 6 6 5 5 4 4
11 13 13 13 13 13 12 12 10 11 11 15 14 15 11 12 11 10 9 9 10 11 11 12 12 12 12 12 11 11 11 9 8 8 7 7 6 6 5 5 5 4 4 3
10 10 12 13 11 11 11 11 11 13 12 8 10 14 11 10 9 9 8 10 10 11 11 11 11 10 10 10 10 9 8 8 7 7 6 6 6 5 5 4 4 3 3 3
10 10 12 13 12 11 12 10 8 7 8 9 13 14 9 8 8 8 9 10 10 10 10 10 10 9 9 9 8 8 8 7 6 6 6 5 5 4 4 3 3 2 2 2
10 8 11 13 13 11 11 10 9 10 10 11 11 12 11 10 9 8 9 10 10 10 10 10 9 9 8 7 7 7 6 6 5 5 5 4 4 3 3 2 2 2 1 1
9 11 9 10 9 10 10 11 9 10 10 13 12 10 10 9 8 8 9 9 10 9 9 8 8 7 7 7 6 6 5 5 4 4 4 3 3 2 2 1 1 1 1 0
6 9 9 10 8 8 9 9 8 8 9 9 8 9 8 8 8 9 9 9 9 8 8 7 7 6 6 6 6 5 4 4 4 3 3 2 2 1 1 1 1 1 -0 -1
7 7 8 11 7 8 11 10 8 9 8 9 10 10 7 7 8 8 8 8 8 7 6 6 6 6 6 6 5 4 4 3 3 2 2 1 1 0 0 0 0 -1 -2 -2
6 6 6 8 8 10 11 8 9 9 9 8 7 7 7 8 8 8 8 8 7 6 5 5 5 5 5 5 4 3 3 2 2 1 1 0 0 -0 -1 -1 -1 -3 -4 -3
5 5 5 8 7 8 9 8 8 9 10 7 7 7 7 7 8 8 7 7 6 5 5 5 4 5 4 3 3 3 2 2 1 1 0 -0 -1 -1 -1 -1 -3 -4 -3 -3
4 3 7 4 6 8 10 8 9 9 9 7 7 7 7 6 7 7 7 6 5 5 5 4 4 4 3 3 2 2 1 1 0 -0 -1 -1 -1 -1 -2 -2 -4 -3 -3 -3
5 3 5 5 5 6 7 8 9 10 10 7 7 7 6 6 7 6 5 5 4 4 4 4 3 3 2 2 2 1 1 0 -0 -1 -1 -1 -1 -2 -2 -4 -4 -4 -3 -3
6 4 4 3 5 8 7 7 9 8 6 7 7 7 6 6 6 5 5 4 4 4 3 3 3 2 2 2 1 1 0 -0 -1 -1 -1 -1 -2 -2 -4 -4 -4 -4 -4 -4
7 7 6 5 7 7 7 7 8 8 7 7 7 6 6 5 5 5 5 4 4 3 3 2 2 2 2 1 1 1 -0 -1 -1 -2 -2 -2 -2 -4 -4 -4 -4 -4 -4 -4
5 5 5 6 5 5 7 7 7 7 7 7 6 5 5 5 5 4 4 4 4 3 3 2 2 2 2 1 1 0 -1 -1 -2 -2 -2 -2 -5 -5 -5 -4 -4 -4 -4 -3
5 4 4 4 4 5 6 6 7 6 6 6 5 5 5 5 4 4 4 3 3 3 2 2 2 1 1 1 0 -0 -1 -2 -3 -3 -3 -4 -5 -5 -4 -4 -4 -4 -3 -3
4 5 6 7 7 7 8 7 6 6 6 5 5 5 5 4 4 4 4 3 3 3 2 2 1 1 0 0 0 -1 -2 -3 -3 -3 -3 -4 -5 -5 -4 -4 -4 -3 -3 -3

GFSCGP_850_temp_069.txt.gz
Temp
21 22 22 24 25 25 24 24 23 21 22 21 23 25 25 25 22 21 21 22 22 21 20 18 17 16 16 15 15 14 14 14 13 12 12 12 12 12 11 11 11 11 11 10
21 21 24 25 25 24 24 24 23 23 21 21 20 23 25 25 23 21 21 21 22 21 20 18 16 16 15 15 15 15 14 13 13 12 12 13 13 12 11 10 11 11 10 10
22 23 23 23 23 23 23 23 23 22 21 20 21 21 25 22 21 20 20 19 20 21 20 18 17 16 15 15 15 14 14 13 13 12 12 12 12 12 12 11 10 9 10 10
23 21 22 22 22 23 23 23 21 22 21 21 22 22 24 23 22 22 21 19 19 19 19 19 17 16 15 15 14 14 14 14 13 12 11 11 11 11 12 11 10 9 8 8
22 21 21 21 23 23 23 22 22 22 22 22 22 21 24 22 22 21 20 18 17 17 18 18 17 16 15 15 14 13 13 13 13 12 11 11 11 11 11 10 9 8 8 8
21 20 21 21 19 21 21 21 21 21 22 21 24 22 24 22 20 20 18 17 16 16 17 18 17 16 15 14 13 12 12 13 12 11 11 10 10 10 10 10 9 8 8 7
21 20 19 20 19 20 21 22 22 21 20 22 21 21 23 20 18 17 18 16 16 15 15 16 15 14 14 13 12 13 12 12 12 11 10 10 9 8 8 8 8 8 7 7
21 19 20 19 21 22 21 22 22 21 22 23 20 21 21 18 17 17 16 16 16 15 15 15 14 14 14 13 12 12 12 11 11 11 10 9 8 7 7 7 7 6 6 5
22 19 18 18 19 20 20 20 20 21 22 21 23 21 19 19 18 18 17 16 15 14 14 13 13 13 12 12 11 11 11 11 10 9 9 9 8 7 6 6 6 5 5 4
21 19 18 17 18 18 19 20 20 20 20 20 23 22 22 18 18 18 17 16 15 14 14 13 12 11 11 11 10 11 10 10 9 9 8 7 7 6 6 5 5 4 4 3
20 21 17 18 18 20 18 19 20 19 21 20 21 22 21 20 19 18 17 15 14 14 13 13 12 11 11 10 10 9 9 9 8 7 7 6 6 6 5 5 4 4 4 3
18 21 19 19 17 17 18 20 21 20 20 20 20 20 19 20 18 17 16 14 13 13 12 12 12 11 11 11 10 9 8 8 7 6 6 5 5 5 4 4 4 4 3 3
18 20 19 17 17 17 18 19 19 20 19 19 19 20 18 17 17 16 15 14 13 13 12 12 12 11 11 10 10 9 8 7 6 5 5 5 5 4 4 3 3 3 2 2
14 19 20 20 18 20 18 18 18 19 18 20 20 20 17 17 16 16 15 14 13 12 12 11 11 10 10 9 9 9 8 7 6 5 4 4 4 3 3 2 2 1 1 1
16 19 18 18 17 17 18 18 18 17 19 19 20 18 19 18 18 17 15 14 13 12 12 10 10 9 9 8 8 7 7 6 5 4 4 4 3 2 2 1 1 1 0 0
16 18 17 18 16 16 16 17 17 18 18 18 18 17 19 18 16 15 14 13 13 12 11 9 8 8 8 7 7 6 5 5 4 4 4 3 2 2 1 1 0 0 -0 -0
17 17 17 18 16 16 17 18 18 17 17 17 16 16 16 15 15 14 14 12 12 10 9 8 8 7 6 6 5 5 4 4 4 3 3 2 2 1 1 0 -0 -0 -1 -1
16 17 16 17 16 16 15 15 16 17 17 16 16 15 14 14 14 13 12 11 10 9 8 7 7 6 5 5 4 4 3 3 3 2 2 2 1 0 -0 -0 -1 -1 -1 -1
14 17 16 15 16 19 16 14 15 15 17 16 16 15 13 12 12 12 10 8 8 7 7 6 6 5 5 4 3 3 2 2 2 2 2 1 0 -0 -1 -1 -1 -2 -2 -3
13 15 16 15 13 14 16 14 13 14 15 15 15 14 13 12 13 11 9 8 7 6 6 5 5 4 4 4 3 2 2 2 2 2 0 -0 -1 -1 -1 -1 -2 -2 -3 -4
14 14 14 15 14 16 16 13 13 15 15 13 14 14 13 12 11 8 7 7 6 5 5 4 4 4 4 3 3 2 2 2 1 0 -0 -1 -1 -1 -1 -2 -2 -3 -4 -4
15 14 14 15 13 13 13 12 14 14 12 12 12 11 11 10 7 7 6 6 5 5 4 4 4 4 3 3 2 2 2 1 0 -1 -1 -1 -1 -1 -1 -2 -2 -4 -4 -3
14 17 16 15 15 14 13 13 10 11 12 11 11 9 9 8 7 6 6 6 5 5 4 4 3 3 3 3 2 2 1 0 -0 -1 -1 -1 -1 -1 -1 -3 -4 -4 -4 -3
14 13 13 13 16 14 12 13 10 9 10 10 9 8 7 7 6 6 6 5 5 5 4 3 3 3 3 3 2 1 1 -0 -1 -1 -1 -2 -1 -2 -2 -4 -4 -4 -4 -4
14 12 14 15 15 12 11 11 12 9 8 8 7 7 7 6 6 6 5 5 5 4 4 4 3 3 2 2 2 1 0 -1 -1 -1 -2 -2 -2 -3 -4 -5 -4 -4 -4 -3
13 15 14 15 15 15 14 11 10 8 7 7 7 6 6 5 6 5 5 5 4 4 4 3 3 3 2 2 1 0 -0 -1 -2 -2 -2 -2 -3 -5 -5 -4 -4 -4 -4 -4

GFSCGP_850_temp_072.txt.gz
Temp
20 19 20 21 22 23 24 22 22 20 21 19 18 20 21 23 23 22 22 22 22 22 21 19 18 17 17 16 15 14 14 14 13 13 13 12 12 12 12 12 11 11 11 11
19 19 22 23 24 23 24 23 21 19 20 21 20 19 20 21 22 20 20 21 21 22 21 19 18 17 16 16 15 15 14 14 13 13 12 12 13 12 12 11 11 11 11 11
19 22 23 24 24 24 23 23 23 22 20 21 20 18 19 21 21 20 20 20 19 20 21 19 17 16 16 15 15 15 14 14 13 13 12 12 13 12 12 12 11 11 11 10
22 21 23 22 22 22 21 23 22 22 20 19 19 18 21 19 19 20 19 18 18 19 20 19 17 16 16 15 15 15 14 14 13 13 12 12 12 12 12 11 10 10 9 9
21 19 20 21 21 23 21 21 20 21 20 20 19 18 20 20 19 18 18 17 17 17 19 19 18 17 16 15 15 14 14 14 14 13 12 12 11 11 11 11 11 10 9 9
21 22 20 21 20 21 21 20 21 21 19 17 20 19 19 19 18 17 17 16 16 16 18 18 17 16 16 15 14 14 14 13 13 13 12 11 11 11 10 10 10 9 9 8
19 20 20 20 18 20 20 19 17 17 16 17 21 20 17 17 17 17 16 16 16 16 17 17 16 16 15 14 14 13 13 13 12 12 12 11 10 10 10 9 9 9 8 8
18 17 18 20 20 19 19 20 18 19 18 18 20 19 15 17 17 17 16 16 15 15 15 15 15 14 14 14 13 12 12 12 12 11 11 11 10 10 9 8 8 7 7 6
17 18 18 19 20 19 19 18 19 19 20 19 19 17 17 17 16 17 16 15 15 14 14 14 13 13 13 13 12 12 12 11 11 11 11 10 9 8 8 7 7 6 6 5
19 17 19 18 18 19 18 19 18 18 18 18 20 18 16 15 15 15 15 15 14 14 13 12 12 12 11 11 11 11 11 10 10 10 9 9 8 8 7 6 6 5 5 5
18 20 17 18 17 18 17 18 18 18 18 17 17 16 18 16 16 15 15 15 15 14 13 12 12 11 11 10 10 10 9 9 9 8 8 7 6 6 6 5 5 4 4 4
17 17 17 18 17 17 18 19 19 17 18 18 16 15 18 17 17 17 16 15 14 13 12 12 12 12 11 11 10 10 9 8 8 7 7 6 5 5 5 4 4 4 3 3
14 18 16 16 16 17 17 19 19 18 16 16 15 15 17 17 17 17 15 14 13 12 12 12 12 11 10 10 10 9 9 8 8 7 6 5 5 4 4 4 3 3 2 2
13 17 18 16 17 18 17 18 18 17 15 17 17 15 15 15 15 16 15 14 13 13 12 12 11 10 9 9 9 8 8 7 7 6 5 4 4 4 3 3 2 2 2 1
15 16 18 17 17 17 17 18 17 16 17 16 18 18 16 15 14 16 15 14 14 13 12 11 9 9 8 8 8 7 7 6 5 5 4 4 4 3 3 2 2 1 1 0
15 16 17 17 17 17 16 17 17 17 17 17 16 16 15 17 17 16 15 14 13 13 11 9 9 8 8 7 7 6 5 5 5 4 4 3 3 2 2 1 1 0 -0 -0
15 15 15 16 17 17 15 16 16 17 17 17 14 14 15 14 15 15 14 14 13 11 9 8 8 7 7 6 5 5 4 4 4 3 3 2 2 2 1 1 -0 -1 -1 -1
15 16 14 12 16 14 14 14 15 17 17 16 14 14 15 15 14 14 13 12 10 9 8 7 7 6 6 5 5 4 4 3 3 2 2 2 2 1 0 -0 -1 -1 -2 -2
13 15 13 12 13 16 14 14 15 15 16 15 15 13 14 13 12 12 11 9 8 7 7 6 6 5 5 5 4 4 3 2 2 2 2 2 1 0 -0 -1 -1 -1 -2 -2
13 13 13 12 11 11 15 14 14 14 12 15 16 14 13 12 8 7 9 8 7 7 6 5 5 4 4 4 4 3 2 2 2 2 2 1 0 -1 -1 -1 -1 -2 -2 -2
12 12 11 11 11 12 13 13 13 12 11 14 15 14 14 10 9 8 8 7 6 6 5 5 4 4 4 4 3 3 2 2 2 1 1 0 -0 -1 -1 -1 -1 -2 -2 -3
12 10 10 12 11 10 13 12 12 12 13 13 13 12 11 9 8 7 7 6 6 5 5 4 4 4 3 3 3 3 2 2 1 1 0 -0 -1 -1 -1 -1 -2 -2 -3 -4
11 14 13 11 11 13 13 13 12 12 12 11 11 10 10 8 7 7 6 6 5 5 4 4 4 3 3 3 3 2 2 1 1 0 -0 -1 -1 -2 -2 -2 -2 -4 -4 -4
14 13 11 12 14 12 13 13 12 11 11 10 10 9 8 8 7 6 6 6 5 5 4 4 4 3 3 3 2 2 2 1 0 -0 -1 -1 -2 -2 -2 -3 -4 -4 -4 -4
12 12 12 12 14 13 13 13 13 11 9 9 8 8 7 7 6 6 6 5 5 5 4 4 4 3 3 3 2 1 1 1 -0 -1 -1 -2 -2 -3 -3 -3 -4 -4 -4 -4
13 12 10 10 15 14 13 13 11 10 9 8 7 7 6 6 6 5 5 5 5 4 4 3 3 3 3 2 1 1 0 -0 -1 -1 -2 -3 -3 -3 -4 -4 -4 -4 -4 -4

GFSCGP_850_temp_075.txt.gz
Temp
19 16 15 17 18 19 19 18 18 18 18 17 15 17 17 21 21 21 22 22 21 21 21 20 19 18 17 17 16 16 15 14 14 13 13 13 13 12 12 12 12 12 12 12
16 15 17 19 19 19 19 18 17 17 19 18 16 17 18 19 20 21 20 20 21 20 20 19 18 18 17 17 16 16 15 14 14 13 13 13 13 12 12 12 12 12 12 11
15 17 18 18 20 19 19 18 15 17 16 18 18 17 17 19 19 20 20 19 19 19 18 18 18 17 17 16 16 15 15 14 14 13 13 12 12 12 12 12 12 12 11 11
15 16 19 18 19 20 19 20 20 18 16 15 17 15 17 17 17 16 17 18 18 18 18 18 17 17 16 16 15 15 15 14 14 13 13 12 12 12 12 12 11 11 11 10
16 16 18 19 19 18 18 19 18 18 17 16 18 15 15 15 15 15 15 16 17 17 17 17 17 17 16 16 15 15 14 14 14 13 13 13 12 12 12 11 11 10 10 9
16 18 17 18 17 18 18 17 15 16 15 15 16 15 15 15 14 14 14 16 16 16 18 17 17 16 16 15 15 15 14 14 13 13 13 12 12 12 11 11 10 10 9 9
16 16 17 16 16 16 16 14 13 14 14 14 16 15 15 15 14 13 13 15 15 16 17 17 16 16 15 15 15 14 14 14 13 12 12 12 12 11 11 10 10 9 9 8
15 16 17 17 15 17 16 15 13 16 13 15 18 15 14 14 15 15 15 15 15 15 15 15 15 15 14 14 14 13 13 13 12 12 12 11 11 10 10 9 9 8 8 8
14 15 16 16 16 16 17 16 16 16 18 14 14 15 15 14 13 13 14 14 14 14 14 14 14 14 13 13 13 12 12 11 11 11 11 11 10 10 9 8 7 7 7 6
14 15 16 16 18 18 17 17 16 14 17 16 16 13 13 12 12 12 12 13 13 13 13 13 13 13 13 12 12 12 12 11 11 11 11 10 9 8 8 7 6 6 5 5
16 15 14 16 16 16 15 16 16 15 14 14 14 13 13 12 13 11 12 13 13 13 12 12 12 12 11 11 10 10 10 10 10 9 9 8 7 7 6 6 5 5 4 4
15 14 13 16 16 16 16 17 15 13 16 14 11 12 13 13 13 13 13 14 13 13 12 12 11 11 10 10 10 9 9 9 8 8 7 7 6 6 5 5 4 4 4 3
13 14 13 14 14 15 16 17 17 14 11 14 11 13 13 13 12 13 13 13 13 12 12 12 11 10 10 10 9 9 9 8 8 7 6 6 5 5 4 4 3 3 3 3
12 13 13 13 15 14 15 17 17 13 11 12 12 13 14 13 12 12 13 13 13 12 12 11 11 10 10 9 9 8 8 7 7 6 6 5 4 4 3 3 3 3 2 2
12 14 15 16 16 16 16 16 16 15 14 14 15 14 12 12 11 13 14 13 13 12 11 10 10 9 9 8 8 7 7 6 5 5 4 4 4 3 3 3 2 2 1 0
12 13 15 16 16 16 15 16 15 14 15 15 15 14 14 13 14 13 14 13 12 11 9 9 9 8 8 7 7 6 6 5 5 4 4 3 3 3 2 2 1 1 0 -0
12 12 11 14 15 15 13 13 14 15 16 15 14 13 13 12 12 13 13 13 11 10 9 8 8 7 7 6 6 5 4 4 4 4 3 2 2 2 2 1 1 0 -1 -1
13 13 10 8 12 13 14 13 14 14 15 12 11 12 13 13 13 13 13 12 9 9 8 8 7 7 6 5 5 4 4 4 3 3 2 2 2 2 1 1 -0 -1 -1 -1
10 11 10 9 9 12 13 13 14 15 15 14 12 11 12 12 12 8 9 10 9 8 7 7 6 6 5 4 4 4 3 3 3 2 2 2 2 1 1 -0 -1 -1 -1 -2
11 10 10 9 8 9 13 13 14 12 10 13 13 11 10 11 7 5 8 8 7 7 6 6 5 5 4 4 3 3 3 3 2 2 2 1 1 1 -0 -1 -1 -2 -2 -2
10 8 8 8 6 8 11 12 13 11 9 14 14 13 11 8 9 9 7 7 7 6 6 5 5 4 4 3 3 3 3 3 2 2 1 1 0 -0 -1 -1 -2 -2 -2 -3
9 6 6 7 8 9 12 12 11 10 12 13 13 13 11 9 8 7 7 6 6 5 5 4 4 4 3 3 3 3 2 2 2 1 1 1 -0 -1 -2 -2 -2 -2 -3 -3
9 10 8 7 8 11 13 12 12 13 12 12 12 11 11 9 8 7 6 6 5 5 5 4 4 4 3 3 3 2 2 2 1 1 1 0 -1 -1 -2 -2 -3 -3 -3 -4
12 11 9 9 11 11 13 12 12 12 11 11 11 10 9 8 7 6 6 5 5 5 4 4 4 3 3 3 3 2 2 1 1 0 0 -1 -1 -2 -3 -3 -3 -4 -4 -4
10 10 9 8 10 12 13 13 12 11 11 10 9 9 8 7 6 6 5 5 5 5 4 4 3 3 3 3 2 2 1 1 0 -0 -1 -1 -2 -3 -3 -4 -4 -4 -4 -4
10 9 7 8 12 12 12 13 12 11 10 9 9 7 7 7 6 6 5 5 5 4 4 3 3 3 3 2 2 1 1 0 -0 -1 -1 -2 -3 -3 -4 -4 -4 -4 -5 -5

GFSCGP_850_temp_078.txt.gz
Temp
17 14 13 16 18 17 17 18 18 17 17 17 16 17 17 19 18 19 20 21 21 21 19 19 18 18 18 17 17 16 16 16 16 15 14 14 13 13 13 12 13 12 12 12
15 14 16 17 17 18 18 17 17 17 16 18 15 16 16 17 18 20 21 20 19 20 19 18 18 17 17 18 17 16 16 16 15 14 14 13 13 12 12 12 12 12 12 12
14 17 18 16 17 16 17 16 16 17 15 18 16 16 17 18 19 19 19 19 18 19 19 18 17 17 17 17 17 16 16 16 15 14 13 13 12 12 12 12 12 12 11 11
14 15 17 15 16 17 16 17 16 16 15 15 16 15 16 16 16 15 16 18 17 18 19 17 17 17 17 17 16 16 15 15 14 14 13 13 13 12 12 12 11 11 11 10
15 15 14 16 17 17 17 17 16 15 14 15 16 15 15 15 15 14 14 16 16 17 18 17 16 17 16 16 16 15 15 14 14 14 13 13 13 12 12 12 11 11 10 10
15 15 15 16 16 16 15 14 13 13 13 14 15 15 14 13 13 13 14 15 16 17 17 17 16 16 16 16 15 15 14 14 14 13 13 13 12 12 12 12 11 11 10 9
14 14 14 14 14 14 14 14 13 13 13 13 14 14 15 15 12 12 12 14 15 16 18 16 16 16 16 15 15 14 14 14 13 13 13 12 12 11 11 11 10 10 9 9
13 11 15 15 15 14 13 14 13 15 13 15 14 14 15 13 13 14 14 14 14 15 15 15 15 15 15 15 14 14 14 13 13 12 12 12 11 11 10 10 9 9 8 8
13 14 16 15 15 16 16 15 16 14 14 13 13 14 13 12 11 11 12 13 13 14 14 14 14 14 14 14 13 13 13 13 12 12 11 11 10 10 9 9 8 7 7 6
15 14 15 16 16 16 16 16 16 13 15 15 13 13 12 11 10 10 10 12 12 12 13 13 13 13 13 13 12 12 12 11 11 11 10 10 9 9 8 7 6 6 5 5
15 14 14 16 15 14 15 15 14 14 12 13 13 12 11 11 11 10 10 12 12 12 12 12 12 12 12 11 11 11 11 10 10 10 9 8 8 7 7 6 6 5 5 4
14 12 13 14 15 15 15 16 14 12 15 11 9 11 13 11 11 12 12 12 12 12 12 12 12 11 11 10 10 10 10 9 9 8 8 7 7 6 5 5 5 4 4 3
13 13 12 14 14 15 15 16 14 11 9 12 10 12 11 10 10 12 12 12 12 12 12 11 11 10 10 10 10 9 9 9 8 7 7 6 6 5 5 4 3 3 3 3
12 12 13 12 14 13 15 15 15 12 11 12 11 13 13 10 10 11 12 12 12 12 12 11 10 10 10 9 9 9 8 8 7 6 6 5 5 4 4 3 3 3 2 2
12 13 14 14 15 15 15 15 14 14 13 13 14 12 12 10 10 12 13 12 12 12 11 10 10 9 9 9 8 8 7 7 6 5 4 4 4 3 3 2 2 2 1 1
10 13 14 15 15 15 15 15 15 14 14 15 14 14 13 13 12 12 12 12 12 11 10 9 8 8 8 8 8 7 6 5 5 4 4 3 3 2 2 2 1 1 1 0
11 11 11 13 13 14 13 13 13 14 14 14 12 12 12 11 11 12 13 12 12 10 9 8 8 8 7 7 6 6 5 4 4 3 3 3 2 2 2 1 1 1 0 -1
11 11 9 7 12 13 14 13 13 13 14 12 11 11 11 11 10 11 12 12 10 8 8 7 7 7 6 6 5 4 4 3 3 3 3 2 2 1 1 1 1 0 -1 -1
10 9 9 8 9 11 13 13 13 14 14 11 10 10 10 9 11 9 10 10 9 8 7 7 6 6 6 5 4 4 3 3 3 2 2 2 1 1 1 1 0 -1 -1 -2
9 8 9 8 9 9 13 13 13 12 10 12 11 9 8 9 7 5 8 8 7 7 7 6 6 6 5 4 3 3 3 3 2 2 2 1 1 0 0 -0 -1 -1 -2 -2
9 7 8 7 6 8 10 12 13 12 10 12 13 12 10 8 9 10 7 7 7 6 6 6 5 5 4 4 3 3 3 2 2 2 1 1 1 0 -0 -1 -1 -2 -3 -3
9 6 6 6 8 9 11 11 12 10 11 12 12 12 10 9 9 7 7 6 6 6 6 5 4 4 4 3 3 3 2 2 2 1 1 0 -0 -0 -1 -1 -2 -3 -3 -3
9 9 8 7 8 10 12 13 14 13 12 12 12 12 11 9 7 7 6 6 6 5 5 4 4 4 3 3 3 2 2 2 1 1 0 -0 -1 -1 -1 -2 -3 -3 -3 -4
11 9 9 9 11 9 13 13 12 12 12 12 12 11 10 8 7 6 6 6 5 5 4 4 4 3 3 3 2 2 1 1 1 0 -0 -1 -1 -2 -2 -3 -3 -4 -4 -4
9 9 8 7 8 11 12 12 12 12 12 11 10 10 9 8 6 6 6 5 5 5 4 4 3 3 3 2 2 1 1 1 0 -0 -1 -1 -1 -2 -3 -3 -3 -4 -4 -4
9 8 8 9 12 12 12 14 12 12 11 10 10 8 7 7 6 6 6 5 5 4 4 3 3 3 2 2 1 1 1 0 -0 -1 -1 -2 -2 -3 -3 -4 -4 -4 -4 -5

GFSCGP_850_temp_081.txt.gz
Temp
15 13 12 13 15 17 16 16 17 17 17 16 14 15 14 16 17 17 19 19 20 21 20 20 20 19 18 17 17 16 16 15 15 15 14 14 14 14 13 13 12 12 12 12
14 12 14 15 16 17 17 17 16 16 16 17 15 16 15 16 17 18 19 19 20 20 19 19 18 17 17 17 16 16 16 15 15 15 14 14 14 13 13 12 12 12 12 12
13 15 16 16 17 17 16 16 15 17 15 16 15 15 16 17 17 19 18 19 19 20 20 18 17 16 17 17 16 16 16 15 15 14 14 14 13 13 12 12 12 12 12 11
14 14 16 14 15 16 15 16 15 14 14 14 15 14 15 16 16 15 15 17 18 19 18 18 17 16 16 16 16 15 16 15 15 14 14 14 13 13 13 12 12 11 11 11
13 14 14 15 16 16 16 16 15 14 13 13 15 14 15 14 14 13 13 15 16 17 18 18 17 16 16 16 15 15 15 15 14 14 14 13 13 13 12 12 12 11 11 11
12 14 14 14 13 15 13 13 11 11 11 13 15 15 15 13 14 13 13 14 16 17 16 16 16 16 15 15 15 15 15 14 14 14 13 13 13 12 12 12 11 11 11 10
12 12 13 13 14 13 12 12 11 12 13 14 13 14 15 14 13 12 12 13 15 16 16 16 15 15 15 15 15 15 14 14 14 13 13 12 12 12 11 11 11 10 10 9
12 13 13 13 13 13 12 12 12 14 12 14 12 13 15 11 11 13 13 13 13 14 15 14 15 15 15 15 15 14 14 14 13 13 12 12 12 11 11 11 10 9 8 8
11 10 12 13 14 13 13 13 14 13 13 13 12 13 13 11 10 10 11 12 12 13 13 14 14 14 14 14 14 13 13 12 12 12 11 11 10 10 10 9 8 8 7 7
13 11 14 13 15 15 15 13 14 10 14 15 13 13 13 11 10 9 9 10 12 13 13 14 14 14 14 13 13 12 12 11 11 10 10 10 10 9 8 8 7 6 5 5
14 13 14 15 15 14 15 14 13 13 12 13 13 13 11 10 9 9 9 11 12 13 13 13 13 13 12 12 12 11 11 11 10 10 10 9 8 8 7 6 6 5 4 4
13 12 13 15 15 15 14 15 14 13 14 9 9 12 11 9 9 11 10 11 12 13 13 12 12 12 11 11 11 10 10 10 10 9 8 8 7 7 6 5 4 4 3 3
13 12 12 14 14 14 15 14 12 11 9 10 10 12 10 9 9 12 11 12 12 12 12 12 11 11 10 10 10 10 10 9 9 8 8 7 6 5 5 4 3 3 3 2
12 12 13 12 14 13 14 14 13 12 10 10 10 14 13 9 9 9 11 12 12 12 12 11 11 10 10 9 9 9 9 8 8 7 6 5 5 4 3 3 3 2 2 2
12 12 13 13 13 14 14 14 13 13 12 13 13 11 12 10 9 11 13 12 12 11 11 11 10 10 9 8 8 8 8 8 6 5 4 4 3 3 3 2 2 2 1 1
9 12 12 14 14 14 14 14 13 13 13 13 12 12 12 11 11 11 12 12 11 11 10 10 9 8 8 8 8 7 6 5 5 4 4 3 3 3 2 2 1 1 1 1
11 10 10 12 11 12 13 13 12 13 13 12 12 12 11 10 10 11 12 12 11 11 10 8 8 7 7 7 7 6 5 4 4 3 3 3 2 2 1 1 1 1 0 0
9 9 7 6 11 12 14 12 13 13 13 12 12 11 11 10 9 10 11 12 11 10 8 7 7 7 7 6 6 5 4 3 3 3 2 2 2 1 1 1 0 0 -0 -1
9 8 8 8 8 11 14 13 13 14 13 10 11 10 8 9 10 8 10 11 10 9 8 7 7 7 6 5 4 4 3 3 3 2 2 2 1 1 1 0 -0 -0 -1 -1
8 7 9 7 9 9 13 12 12 12 10 11 10 8 7 9 8 5 8 9 8 8 7 7 6 5 5 4 4 3 3 3 2 2 2 1 1 0 0 -0 -1 -1 -2 -2
9 7 7 7 6 8 10 12 12 12 10 11 11 10 9 7 9 10 8 7 7 7 7 6 5 4 4 3 3 3 2 2 2 2 1 1 0 -0 -1 -1 -1 -2 -2 -2
9 6 6 5 8 9 11 11 13 10 10 11 11 11 10 10 9 8 7 7 7 6 5 5 4 4 4 3 3 3 2 2 1 1 1 0 -0 -1 -1 -1 -2 -2 -3 -3
8 9 8 7 8 10 12 12 13 13 13 12 12 11 11 10 8 7 7 6 6 5 5 4 4 4 3 3 3 2 2 1 1 1 0 -0 -1 -1 -1 -2 -3 -3 -3 -3
10 8 9 9 11 8 12 13 12 12 13 12 12 12 11 10 8 7 6 6 5 5 4 4 4 3 3 2 2 2 1 1 0 0 -1 -1 -1 -2 -2 -2 -3 -3 -3 -4
8 8 8 7 8 10 12 12 13 12 12 12 11 11 10 9 7 7 6 5 5 4 4 4 3 3 2 2 1 1 1 0 0 -0 -1 -2 -2 -2 -2 -3 -3 -4 -4 -5
8 8 8 9 13 12 13 15 13 12 12 11 11 8 8 8 7 6 5 5 5 4 4 3 3 2 2 1 1 1 0 -0 -1 -1 -2 -2 -2 -3 -3 -3 -3 -3 -4 -5

GFSCGP_850_temp_084.txt.gz
Temp
13 11 10 11 13 14 15 16 16 17 15 15 14 15 14 15 15 16 18 20 19 19 19 19 19 19 18 18 18 18 18 18 15 15 14 14 14 13 13 13 12 12 12 12
12 10 12 13 13 15 15 16 16 16 15 16 13 14 13 14 15 17 19 18 19 20 20 20 19 19 19 19 18 18 18 16 15 15 15 14 14 13 13 12 12 12 12 12
10 13 13 14 14 14 16 16 16 17 15 15 15 15 16 16 16 17 18 18 19 19 20 19 19 20 19 18 18 18 18 16 15 15 14 13 13 13 13 12 12 12 12 12
10 14 13 13 14 15 14 15 15 14 13 14 14 13 15 15 15 15 16 17 17 18 19 19 19 19 18 17 18 17 15 15 15 14 14 13 13 13 13 13 12 12 11 11
13 13 13 14 15 14 15 14 13 13 12 14 14 14 14 14 15 13 13 15 16 17 18 18 17 16 16 16 16 15 15 15 14 14 14 13 13 13 12 12 12 12 11 11
12 13 12 12 12 12 11 11 11 10 11 12 14 14 14 14 14 13 12 14 15 16 17 17 17 15 15 15 15 15 15 14 14 14 13 13 13 12 12 12 12 11 11 10
11 12 12 12 12 12 12 12 11 12 11 12 12 13 16 15 13 13 11 14 15 16 16 17 16 15 14 15 15 15 14 14 14 13 13 12 12 12 12 11 11 10 10 9
10 12 12 12 13 12 12 12 11 13 11 13 12 13 14 12 10 11 12 13 14 15 16 16 15 14 14 14 15 14 14 13 13 13 13 12 12 11 11 11 10 9 9 8
9 11 10 12 12 13 12 12 13 12 11 12 12 13 13 10 10 9 10 11 13 14 14 14 14 14 14 15 14 14 13 13 12 12 12 11 11 10 10 9 9 8 7 7
10 9 12 11 13 14 13 12 14 10 13 14 12 13 13 11 10 9 8 10 11 12 12 13 14 14 14 14 13 13 12 12 12 11 11 10 10 10 9 8 7 7 6 5
12 12 11 11 12 12 14 13 11 11 11 13 14 13 11 12 9 8 8 11 11 12 12 13 13 13 13 12 12 12 11 11 11 10 10 9 9 8 7 7 6 5 5 4
13 12 12 13 13 14 14 14 13 12 12 9 11 12 11 9 9 10 10 11 12 12 12 12 12 12 12 11 11 11 10 10 10 9 9 8 7 7 6 5 5 4 3 3
12 11 11 13 14 13 13 13 12 11 9 10 11 13 10 9 8 11 11 11 12 11 11 11 11 11 11 11 10 10 10 9 9 8 8 7 6 5 5 4 4 3 3 2
11 11 11 12 14 13 13 14 12 12 11 10 10 13 14 11 9 9 10 12 12 11 11 11 11 11 10 10 9 9 9 8 8 8 6 5 5 4 4 3 3 2 2 2
10 12 12 12 11 12 13 13 12 12 12 13 13 11 13 11 8 9 12 11 11 10 10 10 10 10 9 9 8 8 8 7 6 5 5 4 4 3 3 2 2 2 1 1
9 11 11 13 12 12 13 12 12 11 12 10 12 11 10 10 11 11 12 11 11 11 10 10 9 9 8 8 7 7 7 6 5 5 4 3 3 3 2 2 1 1 1 0
10 9 9 12 10 11 13 13 12 12 12 12 12 12 11 10 10 10 11 11 11 11 10 9 9 8 7 7 7 6 5 5 4 4 3 2 2 2 2 1 1 0 0 -0
9 8 6 6 10 12 13 12 12 12 12 11 12 12 10 9 8 9 11 11 11 10 10 9 8 7 7 6 6 5 5 4 3 3 2 2 2 1 1 1 0 -0 -0 -1
8 7 8 7 8 11 13 12 13 13 13 11 11 8 8 8 10 9 10 11 11 10 9 7 7 7 6 5 5 5 4 3 3 2 2 2 2 1 1 0 -0 -0 -1 -1
7 7 8 7 9 10 13 12 12 12 10 9 10 8 7 8 8 5 10 10 9 8 7 7 6 6 5 5 4 3 3 3 2 2 2 2 1 1 0 -0 -1 -1 -1 -2
7 6 7 7 7 9 10 11 12 12 10 10 11 10 9 7 9 10 8 7 7 7 6 6 5 5 4 4 3 3 2 2 2 1 1 1 0 -0 -1 -1 -1 -2 -2 -3
8 5 5 5 8 10 10 11 13 10 11 11 11 11 10 10 10 8 7 7 6 6 6 5 5 4 3 3 3 3 2 2 1 1 1 0 -0 -1 -1 -1 -2 -2 -3 -3
7 9 8 6 8 10 11 12 13 12 12 12 12 12 11 10 9 8 7 6 6 5 5 5 4 4 3 3 3 2 2 1 1 0 0 -0 -1 -1 -1 -2 -2 -2 -3 -3
9 8 8 8 10 8 12 13 12 12 12 13 12 12 11 11 9 7 6 6 5 5 4 4 4 3 3 2 2 2 1 1 0 0 -0 -1 -1 -2 -2 -2 -3 -3 -4 -4
8 8 8 6 8 11 13 13 13 13 12 12 12 12 11 10 8 7 6 5 5 5 4 4 3 3 2 2 1 1 0 0 -0 -1 -1 -1 -2 -2 -3 -3 -3 -4 -4 -5
7 9 8 10 11 11 13 14 14 12 12 11 12 10 9 9 8 6 6 5 5 4 4 3 3 2 2 1 1 0 -0 -0 -1 -1 -1 -2 -2 -3 -3 -3 -3 -4 -4 -4

GFSCGP_850_temp_087.txt.gz
Temp
12 12 12 12 13 14 14 15 17 17 16 17 17 17 17 15 15 16 17 18 17 18 17 19 19 18 18 18 18 18 17 16 16 16 15 14 14 14 13 13 12 12 12 12
12 11 13 13 13 13 14 14 17 15 15 17 15 17 16 15 15 16 17 18 18 17 18 18 19 18 18 18 18 17 17 17 17 15 15 14 14 14 13 12 12 12 12 12
11 13 13 13 13 13 14 14 15 17 15 15 15 17 17 17 16 16 17 18 18 19 20 19 19 18 18 18 18 18 17 16 17 15 14 14 14 13 13 13 12 12 12 11
11 12 13 12 13 14 14 15 15 14 15 17 15 17 16 16 17 16 16 17 18 19 20 20 19 19 19 18 17 18 17 17 15 15 14 14 14 14 13 13 12 12 11 11
12 12 12 14 14 14 15 14 14 13 14 15 15 17 17 14 16 17 15 15 17 18 18 18 19 18 18 17 17 17 16 15 15 15 14 14 13 13 13 12 12 12 11 11
11 12 11 13 12 12 12 12 12 11 13 15 15 16 17 16 17 15 13 14 15 16 17 17 18 17 16 16 15 15 15 15 15 14 14 13 13 12 12 12 12 11 11 11
11 11 11 11 13 12 12 14 12 13 14 15 13 14 18 15 14 14 14 13 14 15 16 17 17 16 15 15 14 15 15 15 14 14 13 13 12 12 12 12 11 11 10 10
9 11 11 12 12 13 12 13 11 13 14 15 12 15 17 13 11 10 12 13 14 15 16 16 16 15 14 14 14 14 14 14 14 13 13 12 12 11 11 11 10 10 9 9
8 9 11 12 12 12 12 12 13 13 12 14 14 15 15 11 11 10 10 11 12 13 14 14 14 14 13 14 14 14 14 14 13 12 12 11 11 10 10 10 9 9 8 8
9 10 11 11 12 13 12 13 14 13 15 15 14 14 17 13 12 10 10 10 11 12 12 12 13 12 13 13 14 13 13 13 12 11 11 10 10 10 9 9 8 8 7 6
10 11 12 11 12 12 14 13 12 13 13 14 15 17 14 14 12 11 10 10 11 11 11 11 12 12 12 13 13 12 12 11 11 10 10 10 9 9 8 8 7 6 5 5
12 11 10 10 13 13 13 14 13 14 13 11 12 16 13 12 11 11 10 10 10 10 11 11 11 12 12 12 11 11 11 10 10 10 9 9 9 8 7 6 5 5 4 3
11 12 12 12 13 12 13 13 12 12 11 11 14 16 11 10 9 10 10 10 10 10 10 10 11 11 11 11 11 10 10 9 9 9 8 8 7 6 5 5 4 3 3 2
11 11 12 13 13 12 12 13 12 13 12 13 13 15 15 13 11 9 10 11 10 10 10 10 10 10 10 10 10 9 9 8 8 8 7 6 6 5 4 4 3 2 2 2
10 11 11 11 11 12 13 13 12 12 13 15 14 12 14 13 12 10 11 10 10 10 10 10 10 10 9 9 8 8 8 8 7 6 6 5 4 4 3 3 2 2 1 1
8 11 10 11 12 12 12 12 12 11 11 11 11 12 11 10 9 9 10 10 10 10 10 10 9 9 8 8 8 7 7 7 6 6 5 4 3 3 2 2 2 1 1 1
9 9 8 11 10 11 12 13 11 12 11 12 13 13 11 11 10 9 10 11 11 10 10 9 9 8 8 7 7 7 7 6 5 4 3 3 3 2 2 2 1 1 0 0
9 8 7 9 10 14 14 11 12 12 12 11 12 11 9 9 8 9 10 11 11 11 10 9 8 7 7 7 7 6 6 5 4 3 3 3 2 2 2 1 1 0 -0 -0
7 7 8 9 9 12 13 12 12 12 13 9 11 9 7 8 9 9 10 10 10 10 9 8 7 7 6 6 6 5 4 4 3 3 2 2 2 1 1 1 0 -0 -1 -1
6 6 9 8 10 11 13 12 11 12 12 9 10 8 8 8 11 9 10 10 10 8 8 7 6 6 6 5 4 4 3 3 2 2 2 1 1 1 1 0 -0 -1 -1 -2
8 6 8 8 9 10 10 11 11 13 12 10 10 10 9 9 9 9 9 8 8 7 6 6 6 5 5 4 4 3 3 2 2 2 1 1 0 0 -0 -1 -1 -2 -2 -2
9 7 7 6 8 12 11 11 14 12 12 11 11 11 10 10 9 8 7 7 6 6 6 5 5 4 4 3 3 3 2 2 2 1 1 0 -0 -1 -1 -1 -2 -2 -3 -3
9 9 9 8 10 10 11 11 12 12 12 12 12 12 10 10 8 7 6 6 6 5 5 5 4 4 3 3 2 2 2 1 1 0 0 -0 -1 -1 -1 -2 -2 -3 -3 -3
8 7 8 9 10 9 12 13 13 12 12 12 12 12 10 10 8 7 6 6 5 5 5 4 4 3 3 2 2 2 1 1 0 -0 -1 -1 -1 -2 -2 -3 -3 -3 -3 -4
8 7 8 7 9 12 13 14 13 13 11 11 11 11 10 9 7 7 6 5 5 4 4 4 3 3 3 2 1 1 0 -0 -0 -1 -1 -1 -2 -2 -3 -3 -3 -4 -4 -5
7 8 8 10 11 12 13 13 13 13 12 11 11 10 9 9 8 6 5 5 5 4 4 3 3 3 2 1 1 0 -0 -0 -1 -1 -2 -2 -3 -3 -3 -4 -3 -3 -4 -5

GFSCGP_850_temp_093.txt.gz
Temp
19 17 18 19 19 19 18 18 18 20 22 22 22 22 23 24 22 23 24 23 22 22 21 21 20 20 19 18 16 16 17 16 17 16 15 15 14 13 13 14 13 12 12 13
18 17 19 19 18 18 17 17 18 19 21 22 22 22 23 24 22 22 23 23 22 23 22 21 20 19 17 20 19 15 15 17 17 16 15 15 14 13 13 13 13 12 11 12
17 18 18 17 17 17 17 17 17 18 20 21 21 22 23 24 23 22 22 22 22 22 22 20 18 18 18 18 16 15 16 17 17 16 15 13 12 13 13 13 12 12 11 11
16 17 17 17 17 17 16 18 18 17 18 17 21 18 22 24 23 23 22 22 22 21 21 21 20 18 18 17 15 15 16 16 17 16 14 13 14 14 13 13 12 13 12 12
16 16 16 15 17 18 17 18 17 18 17 18 17 19 23 24 23 23 23 22 21 20 18 19 20 20 18 16 15 15 14 13 15 14 14 14 13 13 12 12 12 11 12 11
17 16 16 16 16 17 18 17 17 17 17 14 12 15 22 23 24 24 24 22 21 18 17 17 17 17 16 15 15 14 13 12 12 12 12 12 13 12 12 12 11 11 11 12
16 16 17 16 15 18 17 16 10 11 12 15 15 13 17 21 25 24 25 24 22 19 18 17 16 15 14 14 13 13 12 11 11 11 12 12 13 12 12 12 12 11 10 9
13 13 15 17 15 14 16 16 11 12 14 14 18 17 19 20 20 19 20 21 19 18 17 16 15 15 13 12 12 12 12 11 11 11 12 13 13 12 12 11 11 11 10 9
14 13 16 17 17 16 16 13 11 9 10 11 17 21 21 21 19 20 19 18 17 16 16 15 14 13 13 12 11 11 11 11 11 13 13 12 12 12 11 11 11 10 9 9
16 13 16 17 17 17 15 13 12 11 13 14 18 17 19 21 20 19 18 17 15 14 14 14 14 13 13 11 11 10 10 12 13 13 12 11 10 11 11 10 10 9 8 8
17 15 17 17 17 17 16 15 15 15 16 13 17 18 20 19 20 19 19 16 15 14 13 13 12 12 11 10 10 11 12 12 12 11 11 10 10 10 9 8 8 7 7 6
17 16 16 16 18 18 17 16 18 13 13 17 14 18 21 20 19 19 16 14 13 13 12 12 11 11 11 10 10 11 11 11 11 9 9 9 10 9 8 7 6 6 5 5
16 17 17 16 18 19 18 18 18 18 18 16 16 17 21 19 19 17 15 14 12 12 12 11 12 12 11 11 11 10 10 9 9 9 8 8 8 7 7 6 5 5 4 4
13 16 17 16 17 17 17 18 18 18 16 17 16 18 21 20 18 17 15 14 13 12 12 12 12 12 11 11 10 10 9 8 8 8 7 7 6 6 5 5 5 4 4 3
16 15 18 18 18 18 17 17 18 17 18 17 18 18 19 18 18 17 15 14 13 13 12 12 11 11 11 10 10 9 8 7 8 7 6 6 5 5 5 4 3 3 3 3
16 15 17 17 18 18 17 18 17 17 17 18 18 18 18 17 17 17 16 15 14 13 12 11 11 10 10 9 9 8 7 7 7 6 6 5 5 4 3 3 3 3 2 2
15 16 16 17 18 18 18 17 17 17 17 17 17 17 17 17 16 16 16 15 14 13 12 11 10 10 9 9 8 8 7 6 6 6 5 4 4 3 3 3 2 2 2 2
14 15 15 16 18 17 18 17 16 16 16 16 16 17 15 14 13 13 13 15 14 13 12 10 10 9 8 8 7 7 6 6 5 5 4 4 3 3 3 2 2 2 2 1
14 14 15 15 17 18 18 17 16 16 16 15 15 15 14 13 14 12 10 11 13 12 11 10 8 8 7 6 6 5 5 5 4 4 4 3 3 2 2 1 1 1 1 0
14 14 14 16 14 16 17 16 15 15 16 15 15 15 15 14 17 13 10 9 10 9 8 8 7 7 6 5 5 5 5 4 4 4 3 2 2 1 1 1 0 -0 -0 -1
15 15 14 16 15 17 17 15 13 16 16 15 14 15 14 15 12 9 9 8 8 7 7 6 6 6 5 5 4 4 4 4 3 2 2 1 1 1 0 -0 -0 -1 -1 -1
16 16 15 16 15 15 15 15 16 15 15 14 14 13 12 10 9 9 8 7 6 6 6 6 6 5 4 4 4 4 4 2 2 1 1 1 1 0 -0 -0 -1 -1 -1 -2
14 16 15 16 16 15 15 14 13 13 13 14 13 12 12 10 9 8 7 6 6 6 6 5 5 4 4 3 3 3 2 1 1 1 1 1 0 -0 -1 -1 -1 -2 -2 -2
16 13 14 15 16 16 15 14 13 12 12 12 12 11 10 10 8 8 7 6 6 5 5 5 5 4 4 3 2 2 1 1 1 1 1 0 -0 -1 -1 -2 -2 -2 -3 -3
15 13 15 15 16 16 14 14 13 12 11 11 10 10 10 9 8 7 7 6 6 5 4 4 4 4 3 2 1 1 0 0 0 0 0 -0 -1 -2 -2 -2 -3 -4 -4 -5
13 14 14 15 16 15 15 15 13 12 12 11 10 9 9 8 8 7 6 6 5 4 4 4 3 3 2 1 1 -0 -0 -1 -1 -1 -1 -1 -2 -2 -2 -3 -3 -4 -5 -6

GFSCGP_850_temp_096.txt.gz
Temp
18 17 16 17 18 18 18 17 17 18 19 19 19 20 21 22 23 22 23 24 23 23 22 21 21 20 19 19 18 19 18 18 17 16 15 14 14 14 14 14 14 13 13 13
18 16 18 18 18 17 17 17 16 17 19 19 18 19 21 22 21 22 23 23 22 22 22 20 20 19 19 18 16 19 18 17 17 16 16 15 13 14 14 14 13 13 13 13
16 17 18 18 17 17 16 16 16 17 18 18 18 17 19 22 23 22 22 22 23 22 22 21 19 19 19 18 19 19 18 17 17 16 16 14 13 13 13 13 13 13 12 12
17 18 17 16 16 17 14 17 17 16 15 14 18 15 18 20 21 22 22 22 22 22 22 21 21 20 19 19 18 17 16 16 16 16 15 14 14 14 13 14 14 13 12 12
17 16 16 15 16 16 15 14 14 15 15 15 15 14 17 18 20 21 20 22 21 21 20 21 20 19 18 17 17 16 16 17 17 16 14 14 13 13 13 13 13 13 12 12
18 17 17 16 16 17 17 14 13 13 14 12 15 14 13 17 20 21 20 22 22 21 20 19 19 19 18 18 17 16 15 15 15 15 12 13 13 13 13 13 13 12 11 11
17 16 17 17 16 17 15 12 9 10 12 12 13 12 13 15 16 19 18 18 21 19 19 18 18 18 17 17 16 15 14 13 12 11 12 12 13 13 13 12 12 11 11 11
14 14 16 17 16 15 15 12 10 10 12 11 11 11 12 12 14 19 18 21 19 18 17 17 17 16 16 16 15 14 13 12 12 12 12 12 12 12 12 12 12 11 11 10
14 14 17 18 17 16 15 12 10 9 9 11 10 12 13 14 18 17 16 16 17 17 16 16 15 14 14 14 14 13 12 12 11 11 11 12 12 12 12 12 11 11 10 10
16 13 17 18 18 17 15 12 11 9 11 11 14 16 16 17 17 17 15 15 15 15 15 14 14 13 12 12 12 12 11 11 11 11 11 12 12 12 11 11 11 10 10 9
17 16 16 18 17 16 15 15 13 11 11 12 14 15 18 17 17 16 14 15 14 14 14 13 13 12 12 11 11 11 11 11 11 10 11 11 11 10 10 10 9 9 8 9
16 14 14 17 19 19 17 16 17 12 12 10 11 14 17 17 16 15 15 14 14 13 13 12 12 11 11 10 11 10 10 10 10 11 10 10 9 9 9 8 8 8 7 7
14 14 14 16 16 18 17 18 18 17 13 14 11 13 17 16 15 15 14 13 12 12 12 11 11 11 10 10 10 10 10 10 10 9 9 9 9 8 7 7 7 7 7 6
13 14 14 13 15 16 16 17 17 17 13 15 15 16 16 16 15 14 13 13 12 12 12 12 12 11 11 11 10 9 9 9 9 9 8 8 7 7 7 7 7 6 5 4
14 13 15 16 16 18 17 17 17 17 17 15 16 15 15 16 16 15 14 13 12 12 12 12 11 11 11 10 9 9 8 8 8 8 7 7 7 6 6 6 5 4 4 3
14 13 14 15 17 18 17 17 17 17 16 17 16 14 16 17 17 16 14 13 13 12 12 12 11 11 10 9 9 8 7 7 7 6 6 6 6 5 5 4 4 3 3 2
13 13 13 13 16 18 17 16 16 17 16 15 15 15 15 14 14 14 15 14 13 12 12 11 11 10 10 9 8 7 7 7 6 6 5 5 4 4 3 3 3 2 2 2
13 12 13 12 15 15 16 16 16 16 15 14 15 14 14 13 13 12 13 15 14 13 11 10 10 9 9 8 8 7 6 6 6 5 5 4 4 3 3 2 2 2 2 2
13 12 12 12 13 16 16 15 15 14 14 14 14 14 14 13 12 10 12 13 13 12 11 10 9 8 7 7 6 6 6 5 5 5 4 4 3 2 2 2 1 1 0 0
14 12 11 12 12 14 15 15 15 15 13 15 15 15 15 14 11 8 10 11 11 10 10 8 8 7 6 6 5 5 5 4 4 4 3 3 2 2 1 1 0 0 -0 -1
12 12 10 11 11 15 15 14 14 14 12 14 15 14 14 11 10 9 9 9 9 8 8 7 7 6 5 5 5 5 4 4 4 3 2 2 1 1 1 0 -0 -1 -1 -1
14 12 11 13 12 12 15 14 14 13 14 14 14 13 11 10 9 9 8 7 7 7 6 6 6 5 5 5 4 4 4 3 2 2 1 1 1 0 -0 -0 -1 -1 -1 -2
13 13 11 13 13 15 15 14 13 13 13 13 13 12 12 10 9 8 7 7 6 6 6 5 5 4 4 4 4 3 3 2 2 1 1 1 0 -0 -1 -1 -1 -2 -2 -2
14 14 12 13 15 15 15 14 13 13 13 12 12 12 11 10 9 7 7 6 6 6 5 5 5 4 3 3 2 2 2 1 1 1 1 0 -0 -1 -1 -2 -2 -2 -3 -3
12 13 13 12 14 16 15 14 13 13 12 12 11 11 10 10 8 7 7 6 5 5 5 5 4 4 3 2 1 1 1 0 -0 -0 -0 -1 -1 -1 -2 -2 -3 -3 -4 -4
11 11 11 11 14 15 15 14 13 13 12 12 11 10 10 10 8 7 7 6 5 5 4 4 3 3 2 1 1 0 0 -1 -1 -1 -2 -2 -2 -3 -3 -3 -3 -4 -4 -4

GFSCGP_850_temp_102.txt.gz
Temp
14 12 12 12 13 14 13 13 12 13 14 14 14 14 14 16 16 16 18 19 20 20 21 19 18 18 18 18 17 18 18 17 17 17 15 15 15 15 15 14 14 13 14 13
12 12 14 14 15 14 13 12 12 13 14 14 13 14 14 14 15 17 18 19 19 21 20 18 18 18 17 18 17 18 18 18 16 15 16 16 16 16 15 13 13 13 14 13
13 14 15 15 14 14 13 12 12 13 13 13 13 13 13 14 15 17 18 18 20 21 20 19 18 17 17 18 18 18 18 17 16 17 17 15 15 14 13 13 12 13 13 13
13 15 15 14 14 14 12 14 14 13 12 11 13 11 12 13 13 14 15 15 17 20 18 19 17 16 17 18 18 18 18 17 17 17 17 17 16 15 15 14 13 12 13 13
13 14 14 14 14 14 13 14 13 13 12 10 11 9 11 12 13 12 12 14 16 17 18 18 15 16 17 16 16 18 18 17 17 16 16 16 16 14 14 13 12 11 12 12
13 15 15 15 14 14 15 13 11 11 11 9 10 10 10 9 10 10 12 13 16 16 16 17 17 18 18 17 17 17 17 17 16 15 16 16 15 13 12 12 11 11 12 12
11 13 14 15 13 14 13 10 9 8 9 10 8 9 9 10 10 10 10 12 14 14 15 17 18 17 17 17 16 18 18 16 14 14 14 14 13 13 12 11 11 11 12 11
10 10 14 15 14 13 12 11 9 8 10 9 9 9 10 10 11 10 10 11 13 14 14 15 16 17 17 15 16 16 16 15 14 13 13 13 12 10 10 11 11 11 12 11
10 10 13 14 14 14 13 10 8 8 8 8 10 11 11 12 11 10 10 10 10 12 12 12 13 16 17 17 17 17 16 13 14 13 12 11 10 10 11 11 11 11 11 11
13 10 13 13 15 13 13 9 10 9 10 8 11 12 12 12 10 9 10 10 10 11 12 12 12 12 14 14 16 13 13 12 12 12 11 11 11 11 11 12 11 11 11 10
12 10 11 12 13 13 12 11 11 10 10 10 9 11 12 11 11 10 9 9 9 10 12 13 12 12 13 12 12 12 12 12 11 11 11 11 11 11 11 11 11 10 10 10
12 9 8 11 13 13 14 14 12 10 10 11 10 10 10 10 10 10 10 9 9 10 11 11 11 11 11 11 11 11 12 11 10 10 11 11 11 11 11 10 9 9 9 8
13 9 8 10 11 11 12 12 14 11 10 10 9 11 11 10 9 10 10 11 11 11 11 11 11 11 11 11 11 11 11 11 10 10 10 10 10 9 9 9 8 8 8 7
12 9 10 9 10 11 10 12 12 12 10 11 10 13 12 11 10 10 10 11 11 10 10 10 10 10 10 10 10 10 10 10 10 10 10 9 9 9 8 8 7 7 6 6
9 9 9 9 10 11 11 11 13 13 13 12 12 13 12 11 10 10 11 11 11 10 10 10 9 9 9 9 9 9 9 9 9 9 9 8 8 7 7 6 6 6 5 5
7 9 8 9 12 12 13 13 14 13 13 13 12 11 10 10 11 11 11 11 11 10 10 10 10 10 9 9 9 9 8 8 8 8 7 7 6 6 6 5 5 4 4 3
8 7 8 8 10 11 13 13 14 13 12 12 12 12 11 9 9 10 11 11 11 10 10 10 10 9 9 9 8 8 8 7 7 7 6 6 6 5 5 4 3 3 2 2
8 8 7 7 8 12 13 14 13 11 12 11 11 11 10 9 9 10 11 11 11 11 10 10 9 9 8 8 7 7 7 6 6 6 5 5 4 4 3 3 2 2 2 1
8 7 7 6 8 11 13 14 13 12 12 12 11 10 10 10 11 11 12 12 11 11 10 10 9 9 8 8 7 7 6 6 5 5 4 4 3 3 2 2 2 1 1 0
7 7 7 7 8 10 13 13 14 12 10 12 12 10 10 10 9 7 11 11 11 10 10 9 8 8 8 7 6 6 6 5 5 4 3 3 3 2 2 1 1 0 -0 -1
8 7 7 6 5 8 10 13 13 12 10 13 13 13 11 8 10 11 11 11 10 10 9 8 8 7 7 6 6 6 5 4 4 3 3 2 1 1 1 0 0 -0 -1 -1
8 6 5 6 7 9 13 12 13 11 12 13 13 13 12 12 10 10 9 9 9 8 8 7 7 7 6 5 5 5 4 3 3 2 2 1 1 0 -0 -0 -1 -1 -2 -2
9 9 9 8 8 12 14 14 14 14 14 13 13 13 12 11 10 9 8 8 8 8 7 7 7 6 5 5 4 4 3 2 2 1 1 0 0 -0 -1 -1 -1 -2 -2 -3
10 10 8 9 11 12 13 14 14 14 13 13 13 12 12 11 9 8 8 7 7 7 6 6 6 5 5 4 4 3 2 1 1 0 -0 -0 -1 -1 -1 -2 -3 -3 -3 -4
9 9 8 7 9 12 13 13 13 13 13 13 12 12 12 11 9 9 7 7 7 6 6 5 5 4 4 3 3 2 1 1 0 -0 -1 -1 -2 -2 -2 -3 -3 -4 -4 -5
8 8 9 10 11 11 12 13 12 12 13 13 12 12 11 10 10 8 8 7 6 6 5 5 4 4 3 2 2 1 0 -0 -1 -1 -2 -2 -3 -3 -3 -3 -3 -4 -5 -5

GFSCGP_850_temp_105.txt.gz
Temp
14 11 11 12 12 12 12 11 11 12 13 13 12 12 12 14 15 15 17 18 18 18 19 18 17 17 16 15 16 16 16 16 16 17 15 15 14 14 14 14 15 14 14 14
11 11 14 13 13 13 12 12 12 12 13 13 12 12 12 13 14 16 16 17 18 18 19 17 17 17 16 16 16 15 15 16 17 16 15 15 14 14 13 13 14 14 14 14
12 13 14 14 13 13 13 12 11 12 13 12 11 11 12 13 14 15 16 15 16 17 19 18 17 17 16 16 16 15 16 16 16 16 15 15 14 13 13 12 12 12 13 14
12 14 14 13 13 13 11 14 14 13 12 11 11 10 11 12 12 12 12 13 14 16 19 17 18 17 16 16 15 14 13 15 16 16 16 14 14 13 12 12 12 12 12 13
13 13 13 13 14 14 13 13 12 11 10 9 10 9 8 9 10 9 10 11 13 15 17 19 18 17 16 15 15 15 14 13 13 15 14 14 14 13 13 12 11 12 10 12
12 14 14 14 14 13 13 12 10 9 9 8 8 9 8 9 10 10 9 9 12 16 14 16 17 15 16 17 18 17 16 16 13 13 13 13 12 13 12 11 12 11 12 11
10 12 12 14 12 13 11 9 9 7 7 10 8 9 8 8 9 10 8 9 11 13 14 14 15 15 16 17 17 17 15 14 14 13 12 12 12 12 10 12 12 11 11 10
9 10 13 13 13 13 11 10 10 8 8 9 9 9 10 11 10 10 9 9 10 11 12 13 14 16 13 15 14 15 16 12 13 12 12 11 12 11 10 11 11 10 10 10
9 10 11 13 13 13 12 9 9 8 8 8 9 12 10 12 11 10 9 9 9 10 11 12 15 15 16 13 13 14 13 13 12 12 12 13 12 10 11 10 10 10 10 10
12 8 11 12 14 12 12 8 10 8 10 10 9 10 11 11 11 10 10 8 9 10 11 12 12 12 13 13 14 14 13 12 12 12 11 11 10 10 10 10 10 10 10 10
11 10 10 11 13 12 10 10 10 9 10 10 8 10 11 10 10 9 8 8 9 9 10 11 11 11 12 13 12 12 12 12 11 11 11 11 11 11 11 10 10 10 10 10
12 8 8 11 11 11 12 13 10 9 9 10 10 9 9 8 9 9 8 8 8 10 10 10 11 11 11 11 11 11 12 11 11 11 11 11 11 11 10 10 10 10 9 9
11 8 7 10 11 11 11 11 11 10 8 9 8 10 10 9 8 9 9 9 9 9 10 10 10 10 11 11 11 11 10 10 10 10 10 10 10 10 10 9 9 8 8 8
11 8 9 8 10 10 9 10 10 10 9 10 9 11 11 10 9 9 9 9 9 9 9 9 9 10 10 10 10 10 10 10 10 10 10 9 9 9 8 8 8 7 7 6
8 9 8 8 9 9 9 10 10 12 12 12 12 12 10 9 10 10 9 10 9 9 9 9 9 9 9 9 9 9 9 9 9 9 9 8 8 8 7 7 6 6 5 5
7 8 7 8 10 10 9 11 12 13 12 12 11 11 10 9 10 10 10 10 10 9 9 9 9 9 9 9 9 9 8 8 8 8 8 7 7 6 6 6 5 5 4 3
8 6 7 7 9 9 12 13 13 12 11 11 11 12 9 9 10 10 10 10 10 10 10 9 9 9 9 9 8 8 8 7 7 7 7 6 6 5 5 4 4 3 3 2
7 7 6 6 7 12 13 12 12 12 11 11 11 10 10 9 10 11 11 11 11 10 10 9 9 9 8 8 8 7 7 7 6 6 6 5 4 4 3 3 2 2 1 1
7 6 7 6 7 9 12 12 12 12 13 11 11 9 9 10 9 10 11 11 11 11 10 10 9 9 8 8 7 7 6 6 5 5 4 4 3 3 2 2 1 1 0 0
6 5 7 5 7 10 12 13 13 12 10 11 11 9 9 9 7 7 11 11 11 10 10 9 9 8 7 7 6 6 6 5 4 4 3 3 3 2 2 1 1 0 -0 -1
6 5 5 6 4 7 9 12 13 12 11 12 12 12 10 7 10 11 11 11 10 10 9 8 8 7 7 6 5 5 5 4 4 3 3 2 2 1 0 0 -0 -0 -1 -1
7 5 4 5 5 8 11 11 12 11 12 13 13 13 12 12 11 10 10 10 10 9 8 7 7 7 6 5 5 5 4 4 3 2 2 1 1 0 -0 -0 -1 -1 -2 -2
8 8 7 7 7 11 12 13 14 14 14 13 13 13 12 12 11 10 10 9 9 8 8 7 7 6 5 5 4 4 4 3 2 2 1 0 -0 -1 -1 -1 -2 -2 -2 -3
9 8 7 8 10 9 12 13 13 14 14 14 13 13 13 12 11 10 9 8 8 7 7 6 6 6 5 4 4 4 3 2 1 1 0 -1 -1 -1 -2 -2 -2 -3 -3 -3
8 7 7 6 7 10 12 13 14 14 13 13 13 13 12 11 11 10 9 8 7 7 6 6 6 5 5 4 3 3 2 1 0 -0 -1 -1 -1 -2 -2 -2 -3 -3 -4 -5
7 7 8 10 11 11 13 13 13 13 13 13 13 12 12 11 11 10 9 8 7 7 6 5 5 5 4 3 3 2 1 1 0 -0 -1 -1 -2 -2 -3 -3 -3 -4 -5 -5

GFSCGP_850_temp_108.txt.gz
Temp
13 11 11 12 12 11 11 10 10 12 12 12 11 11 11 13 13 13 15 16 17 18 19 18 18 16 17 17 16 17 17 17 16 16 15 15 14 14 14 14 13 13 14 13
10 12 13 12 13 12 12 11 11 12 12 12 12 11 12 12 13 14 15 16 16 17 18 18 17 16 16 16 16 16 15 15 16 15 15 15 14 14 14 13 13 13 13 13
12 14 13 13 12 12 12 11 11 11 11 12 11 10 10 12 12 13 12 12 13 15 16 17 17 16 16 16 16 16 15 14 16 14 15 15 14 13 12 12 11 11 11 12
12 13 14 12 12 13 11 13 12 11 9 9 10 8 9 9 10 10 10 10 11 14 16 17 17 18 17 17 16 15 15 15 16 16 14 14 14 13 12 12 10 9 9 10
14 13 13 12 13 13 12 12 11 10 9 9 9 8 8 8 9 10 10 9 10 12 17 19 18 19 20 17 17 16 14 15 16 16 15 14 13 13 13 10 10 10 10 11
11 13 13 14 13 13 12 11 9 8 8 9 9 8 8 9 9 9 10 9 9 11 15 17 17 16 16 15 14 15 15 15 15 15 14 13 13 10 9 9 10 10 10 11
9 12 12 13 12 12 10 9 8 8 6 7 9 9 8 10 10 10 9 9 9 11 13 14 14 14 14 14 14 14 13 13 13 13 13 12 10 11 10 10 11 10 11 10
8 10 12 12 13 12 10 9 8 10 9 9 9 9 9 10 11 10 9 8 9 10 11 12 13 13 13 13 13 13 12 13 12 12 12 11 11 11 10 10 10 10 10 10
8 9 10 12 13 12 12 8 9 8 6 8 6 11 10 9 10 10 9 8 8 9 10 11 12 13 13 13 13 13 13 12 12 11 11 11 11 11 10 10 10 10 9 9
11 8 11 11 12 11 11 9 9 7 7 9 9 9 10 10 9 9 9 7 7 9 10 11 11 12 13 13 12 13 14 12 11 11 12 10 10 9 10 10 9 9 9 9
11 9 9 11 12 12 10 10 9 8 9 8 10 9 10 9 8 8 8 7 7 8 9 9 11 12 12 12 12 12 12 12 11 11 10 10 9 9 10 10 10 9 9 9
11 7 7 11 11 10 11 12 9 7 9 8 8 9 9 8 8 8 8 7 8 8 9 10 11 11 11 11 11 11 11 11 11 10 11 10 10 10 10 10 10 10 9 9
10 8 7 10 11 10 11 10 10 8 7 8 7 10 9 8 7 8 8 8 8 9 9 10 11 10 11 10 10 10 10 11 11 11 11 10 10 10 10 9 8 8 8 7
10 7 8 8 10 9 9 10 10 9 8 9 8 9 10 8 8 8 8 8 8 9 10 10 10 10 10 10 10 10 10 10 10 10 10 9 9 8 8 8 7 7 7 7
8 9 8 7 7 8 8 9 9 10 10 11 10 10 10 9 9 9 8 8 9 9 9 9 9 9 9 9 9 9 9 9 9 9 9 8 8 7 7 7 7 6 6 5
6 8 6 7 9 9 9 9 8 9 12 10 11 10 10 9 9 9 9 9 9 9 9 9 9 9 9 9 8 8 8 8 8 7 7 6 6 6 5 5 5 4 4 3
8 6 6 7 7 8 11 11 12 12 11 11 10 10 10 10 9 9 9 10 10 9 9 9 9 8 8 8 8 8 7 7 7 6 6 5 5 5 5 4 4 3 3 3
5 6 5 6 7 11 12 10 11 11 11 9 10 10 9 10 10 10 10 10 10 9 9 9 9 8 8 8 7 7 7 7 6 6 6 5 5 4 4 3 2 2 1 1
6 5 6 5 6 8 12 11 11 12 12 9 9 9 9 9 10 11 11 11 11 10 10 9 8 8 8 7 7 7 6 6 5 5 4 3 3 2 2 1 1 0 -0 -0
5 4 5 5 6 9 11 12 12 12 10 10 10 8 8 8 7 6 12 11 11 10 9 9 8 8 7 7 6 6 5 5 4 4 3 2 2 1 1 0 -0 -0 -1 -1
4 4 5 5 4 6 8 12 12 12 10 11 11 11 9 7 10 12 12 11 11 10 10 8 8 7 6 6 5 5 5 4 3 3 2 2 1 1 0 -0 -1 -1 -1 -1
6 4 3 4 5 7 10 10 11 11 12 13 12 12 12 12 12 11 11 10 10 10 9 8 8 7 6 5 5 5 4 4 3 2 2 1 0 -0 -1 -1 -1 -1 -2 -2
8 7 6 6 7 10 11 12 14 13 13 13 13 13 13 12 12 11 11 10 10 9 9 8 7 6 5 5 4 4 4 3 2 2 1 0 -0 -1 -1 -1 -1 -2 -2 -3
7 7 7 8 9 8 12 13 13 13 13 14 13 13 13 13 12 11 10 9 9 8 8 7 6 6 5 4 4 4 3 2 2 1 0 -0 -1 -1 -1 -2 -2 -3 -3 -3
7 6 6 6 8 10 12 13 14 13 13 13 13 13 13 12 12 11 10 9 8 8 7 6 6 5 5 4 4 3 2 2 1 1 0 -0 -0 -1 -1 -2 -2 -3 -4 -5
6 6 7 8 12 11 12 13 13 13 13 13 13 13 13 12 12 11 10 9 8 7 7 6 5 5 4 4 3 3 2 2 1 1 0 -0 -1 -1 -1 -2 -3 -4 -4 -4

GFSCGP_850_temp_111.txt.gz
Temp
13 14 14 13 12 12 12 11 12 13 14 12 13 13 13 14 13 13 13 14 15 16 17 16 15 15 15 15 15 15 16 16 16 14 16 15 15 14 14 13 13 12 12 12
12 14 14 13 13 13 12 12 12 13 13 12 12 13 13 13 12 12 12 11 12 13 16 16 16 14 15 16 15 15 16 16 15 16 16 15 15 14 14 13 12 12 12 11
12 14 13 13 13 13 13 12 12 12 12 11 12 12 12 12 11 11 11 10 11 12 14 17 16 16 15 14 15 15 15 15 15 16 16 15 14 14 13 12 12 11 10 9
12 13 13 13 13 13 12 13 12 11 11 12 11 10 12 11 12 11 11 10 10 13 14 16 17 17 17 17 15 15 16 15 16 15 15 14 14 14 13 12 11 10 9 8
14 13 12 13 14 12 13 12 11 11 10 11 10 10 12 11 10 8 10 10 10 10 13 16 18 18 19 16 17 16 14 16 15 14 15 14 12 13 12 12 10 9 9 8
11 12 12 13 13 12 12 11 10 9 9 11 9 9 11 9 8 9 10 9 9 10 12 15 16 17 16 15 15 15 13 14 13 14 12 11 11 12 10 10 7 7 9 8
10 12 12 12 12 12 11 10 11 12 10 11 10 10 10 8 9 9 10 8 8 10 11 13 14 14 14 14 13 13 12 12 12 12 12 12 11 9 10 9 10 10 10 8
9 12 12 12 12 12 10 10 9 10 10 10 10 10 10 8 9 9 9 8 7 9 10 11 12 13 12 12 12 12 12 12 12 12 12 11 10 9 9 9 10 10 10 9
10 10 10 11 12 11 12 10 9 8 7 9 10 11 9 9 9 9 9 8 7 7 8 10 11 11 12 12 12 12 11 12 12 13 11 11 10 10 9 10 9 9 9 9
10 9 10 11 11 10 11 10 11 9 9 10 12 11 10 7 7 9 9 7 6 7 8 9 10 11 12 11 11 11 12 12 11 12 11 11 10 9 9 9 9 9 9 9
10 9 11 10 12 12 11 11 10 10 10 10 11 12 11 9 8 8 8 8 7 7 8 9 10 11 11 11 11 11 11 11 11 11 10 11 9 9 10 9 8 8 8 8
10 8 9 11 10 9 11 11 9 10 11 9 10 12 10 9 8 8 8 8 8 8 9 10 10 10 10 10 11 11 11 10 10 10 9 9 9 9 9 9 9 9 8 8
10 9 10 12 12 11 11 10 10 9 8 10 11 13 9 8 8 8 8 8 8 8 9 9 10 9 10 10 10 10 10 10 10 10 10 9 9 9 9 9 8 8 8 7
10 7 10 11 11 9 10 10 9 9 10 10 10 11 11 9 9 8 8 8 8 8 8 9 9 9 9 9 10 10 10 10 9 10 9 9 8 8 8 8 7 7 7 6
8 9 7 8 8 8 8 9 9 9 10 12 11 10 11 10 9 8 8 8 8 8 8 9 9 9 9 9 9 9 9 9 9 9 9 8 7 7 7 7 6 6 6 6
6 9 7 7 8 8 8 9 9 8 10 9 9 10 10 9 9 8 9 9 8 8 9 9 9 9 9 9 8 8 8 8 8 8 8 7 7 7 6 6 6 5 5 4
7 7 7 9 7 8 11 11 10 11 10 11 11 11 9 9 9 9 9 9 9 9 9 9 8 8 8 8 8 7 7 7 7 7 6 6 5 5 5 4 4 4 3 3
6 6 6 8 8 12 13 10 11 11 11 9 10 10 9 10 10 10 10 10 9 9 9 8 8 8 8 7 7 7 6 6 6 5 5 4 4 3 3 3 2 2 1 1
6 6 7 7 7 9 12 10 11 12 13 9 10 9 9 9 9 10 11 10 10 10 9 9 8 8 7 7 6 6 5 5 5 4 4 3 3 3 2 2 1 1 0 0
4 4 7 5 8 10 12 11 12 12 12 10 10 9 8 9 11 10 11 11 10 10 9 9 8 7 7 6 6 6 6 5 5 4 3 3 3 2 1 1 0 -0 -1 -1
5 6 6 6 7 8 9 11 12 13 13 10 11 11 9 9 11 12 11 11 10 10 9 8 8 7 7 6 6 5 5 4 4 3 3 2 1 1 0 -0 -1 -1 -1 -2
7 5 5 5 6 8 9 10 12 12 12 12 12 12 12 13 12 11 11 11 10 10 9 8 8 7 6 5 5 5 4 4 3 2 1 1 0 0 -0 -1 -1 -1 -2 -2
9 8 8 7 9 10 11 12 14 13 13 13 13 13 13 12 12 12 11 10 10 10 9 8 7 7 6 5 4 4 4 3 2 2 1 1 0 -0 -0 -1 -1 -2 -2 -2
7 6 8 8 9 8 12 13 13 13 13 13 14 13 13 13 13 12 11 10 9 9 8 8 7 6 6 4 4 4 4 3 2 2 1 1 0 -0 -1 -1 -1 -2 -2 -3
7 6 6 7 8 9 12 14 14 13 13 13 13 13 13 13 13 12 11 10 9 9 8 7 7 6 5 5 4 4 3 2 2 1 1 0 -0 -1 -1 -1 -2 -2 -2 -3
5 6 8 9 11 14 12 13 13 13 13 13 13 13 13 13 13 12 11 10 9 8 7 7 6 6 5 4 4 3 3 2 1 1 0 0 -0 -1 -1 -2 -2 -2 -3 -3

GFSCGP_850_temp_114.txt.gz
Temp
16 19 18 18 17 17 16 16 17 18 17 15 16 16 16 15 15 15 15 17 17 17 17 16 15 14 14 14 14 14 14 14 13 14 14 14 13 13 14 13 13 13 13 13
18 18 18 17 17 17 17 17 17 17 16 15 15 15 15 15 15 14 14 14 14 15 17 16 15 15 14 14 14 14 15 15 14 15 14 13 13 13 13 13 13 13 13 13
17 18 16 17 17 17 18 16 16 15 16 15 15 16 15 16 15 14 13 14 14 14 15 15 14 15 14 13 13 14 15 15 15 15 16 15 14 14 14 13 13 12 12 12
17 16 16 17 18 16 17 16 15 15 16 15 15 16 17 15 14 13 13 12 13 13 14 15 14 15 15 14 13 14 15 16 16 16 15 13 14 14 14 14 13 12 11 11
18 17 16 17 17 16 17 15 14 15 15 15 15 13 15 13 10 11 11 10 11 11 13 14 15 15 14 14 13 13 13 13 13 13 13 12 13 13 13 13 12 11 11 10
16 14 15 16 16 15 16 15 14 14 15 17 14 12 15 9 8 9 9 10 9 9 11 13 14 14 14 13 13 13 13 13 13 13 12 12 12 13 12 11 12 12 10 10
17 17 15 14 16 17 17 17 15 16 15 16 14 14 12 10 9 9 9 8 8 8 9 12 14 14 13 13 13 13 12 12 12 12 11 11 11 11 10 10 10 8 8 9
15 17 16 15 15 15 14 14 13 12 14 13 14 12 12 9 11 10 9 8 7 7 8 10 11 12 12 12 12 12 12 12 12 12 12 11 10 11 11 9 9 8 9 8
15 16 15 14 14 14 16 15 13 10 11 13 14 17 13 11 13 12 10 8 6 6 7 10 11 12 12 12 12 11 12 12 12 11 11 11 10 9 10 9 9 9 9 9
15 14 15 15 14 14 15 14 15 14 12 14 17 16 13 12 13 13 12 9 6 5 6 9 10 11 11 11 11 11 11 11 11 10 9 9 9 9 9 9 9 9 9 9
14 14 16 14 16 15 15 16 15 14 14 14 16 16 14 13 12 12 12 10 7 6 7 8 10 11 11 11 11 10 11 11 10 9 10 9 9 9 9 9 9 9 9 8
14 14 15 16 14 13 14 14 15 15 15 14 14 16 15 13 12 11 11 10 7 7 7 8 10 10 11 11 11 11 10 10 9 9 9 9 9 8 8 8 8 8 8 7
14 14 16 16 15 14 15 14 13 13 13 15 15 17 14 13 13 11 10 10 8 7 7 8 9 9 9 9 9 10 10 9 9 9 9 9 9 9 8 8 8 8 8 7
12 13 14 16 16 14 14 14 14 14 15 16 16 16 15 14 13 12 9 10 8 8 7 7 7 9 8 8 9 9 9 9 9 9 9 9 8 8 8 7 7 7 7 6
13 14 13 14 14 13 13 13 14 13 15 15 16 15 15 14 14 12 10 9 9 9 7 7 7 7 8 9 9 9 8 8 8 8 8 7 7 7 7 6 6 6 5 5
11 14 12 14 13 12 12 14 14 13 14 14 15 15 15 13 12 12 11 10 10 9 8 7 7 7 8 8 9 8 8 7 7 7 7 6 6 6 6 5 5 5 5 4
12 13 13 15 13 14 15 16 14 15 15 16 16 16 14 13 12 12 11 11 10 9 8 8 7 7 8 8 8 8 7 7 7 7 7 6 6 6 5 5 5 4 4 4
12 12 12 14 14 15 15 14 14 15 15 15 14 14 13 14 13 12 11 11 10 9 8 7 8 8 8 8 7 7 7 7 7 6 6 6 5 5 5 4 4 3 3 2
11 12 13 13 14 16 16 14 14 15 17 16 15 14 13 11 11 12 11 11 10 9 8 8 8 8 7 7 7 7 6 6 6 6 5 5 4 4 3 3 3 2 1 1
9 11 12 11 12 14 15 14 13 14 15 15 14 14 12 11 14 16 11 10 10 9 9 9 8 8 7 7 6 6 6 5 5 4 4 3 3 2 2 1 1 0 -0 -0
10 10 11 12 12 14 16 13 12 15 16 13 13 13 12 13 14 12 11 10 10 10 9 9 8 8 7 7 6 5 5 5 5 4 3 3 2 2 1 0 0 0 -0 -0
12 11 11 12 11 12 13 12 15 16 13 13 12 12 12 12 12 12 11 10 10 10 9 8 8 7 7 6 6 5 5 5 4 3 3 2 1 1 1 1 0 -0 -0 -1
13 14 14 14 15 14 12 14 14 14 14 13 13 13 12 11 11 12 12 11 10 10 9 8 8 7 7 6 5 5 5 4 3 3 2 1 1 1 0 -0 -0 -1 -1 -3
12 10 12 12 16 13 12 12 13 13 13 13 14 13 13 12 12 12 11 10 9 9 9 8 7 7 6 5 5 4 4 4 3 2 1 1 0 0 -0 -0 -0 -1 -2 -4
13 11 13 13 14 12 12 13 13 13 13 13 13 14 14 13 13 12 12 11 10 9 8 8 7 7 6 5 4 4 4 3 2 1 1 1 1 0 -0 -0 -1 -1 -3 -2
9 13 13 15 16 16 16 15 14 14 14 14 13 13 13 13 13 12 12 11 10 9 8 7 7 6 6 5 4 4 4 3 2 1 1 1 0 -0 -0 -1 -1 -1 -2 -2